Time,TemperatureF,DewpointF,PressureIn,WindDirection,WindDirectionDegrees,WindSpeedMPH,WindSpeedGustMPH,Humidity,HourlyPrecipIn,Conditions,Clouds,dailyrainin,SoftwareType,DateUTC
2013-02-17 00:01:00,30.5,21.6,30.26,WSW,237,0.0,0.0,69,0.00,,---,0.00,VWS V14.01,2013-02-17 06:01:00,
2013-02-17 00:06:00,30.5,21.9,30.25,WSW,254,0.0,0.0,70,0.00,,---,0.00,VWS V14.01,2013-02-17 06:06:00,
2013-02-17 00:07:00,30.5,21.9,30.26,WSW,254,1.0,2.0,70,0.00,,---,0.00,VWS V14.01,2013-02-17 06:07:00,
2013-02-17 00:11:00,30.5,21.9,30.25,SW,231,0.0,2.0,70,0.00,,---,0.00,VWS V14.01,2013-02-17 06:11:00,
2013-02-17 00:12:00,30.4,21.8,30.25,SW,231,0.0,2.0,70,0.00,,---,0.00,VWS V14.01,2013-02-17 06:12:00,
2013-02-17 00:16:00,30.4,21.8,30.25,SW,231,0.0,0.0,70,0.00,,---,0.00,VWS V14.01,2013-02-17 06:16:00,
2013-02-17 00:17:00,30.4,21.8,30.26,SW,231,1.0,1.0,70,0.00,,---,0.00,VWS V14.01,2013-02-17 06:17:00,
2013-02-17 00:21:00,30.4,21.8,30.25,SW,234,0.0,1.0,70,0.00,,---,0.00,VWS V14.01,2013-02-17 06:21:00,
2013-02-17 00:22:00,30.4,22.1,30.25,SW,232,2.0,2.0,71,0.00,,---,0.00,VWS V14.01,2013-02-17 06:22:00,
2013-02-17 00:26:00,30.4,22.1,30.25,SW,234,0.0,2.0,71,0.00,,---,0.00,VWS V14.01,2013-02-17 06:26:00,
2013-02-17 00:27:00,30.4,22.1,30.25,SW,233,0.0,2.0,71,0.00,,---,0.00,VWS V14.01,2013-02-17 06:27:00,
2013-02-17 00:28:00,30.4,22.1,30.25,SW,234,0.0,2.0,71,0.00,,---,0.00,VWS V14.01,2013-02-17 06:28:00,
2013-02-17 00:31:00,30.4,22.1,30.25,SW,233,0.0,0.0,71,0.00,,---,0.00,VWS V14.01,2013-02-17 06:31:00,
2013-02-17 00:32:00,30.4,22.1,30.25,SW,233,0.0,0.0,71,0.00,,---,0.00,VWS V14.01,2013-02-17 06:32:00,
2013-02-17 00:33:00,30.4,22.1,30.25,SW,233,0.0,0.0,71,0.00,,---,0.00,VWS V14.01,2013-02-17 06:33:00,
2013-02-17 00:36:00,30.4,22.1,30.25,SW,234,1.0,1.0,71,0.00,,---,0.00,VWS V14.01,2013-02-17 06:36:00,
2013-02-17 00:37:00,30.4,22.1,30.25,SW,233,1.0,1.0,71,0.00,,---,0.00,VWS V14.01,2013-02-17 06:37:00,
2013-02-17 00:38:00,30.4,22.1,30.25,SW,234,0.0,1.0,71,0.00,,---,0.00,VWS V14.01,2013-02-17 06:38:00,
2013-02-17 00:41:00,30.4,22.1,30.25,SW,219,1.0,2.0,71,0.00,,---,0.00,VWS V14.01,2013-02-17 06:41:00,
2013-02-17 00:42:00,30.4,22.1,30.25,SW,231,1.0,2.0,71,0.00,,---,0.00,VWS V14.01,2013-02-17 06:42:00,
2013-02-17 00:43:00,30.5,21.9,30.25,SW,231,2.0,2.0,70,0.00,,---,0.00,VWS V14.01,2013-02-17 06:43:00,
2013-02-17 00:46:00,30.5,21.9,30.25,SW,231,0.0,0.0,70,0.00,,---,0.00,VWS V14.01,2013-02-17 06:46:00,
2013-02-17 00:47:00,30.5,21.9,30.25,SW,231,0.0,0.0,70,0.00,,---,0.00,VWS V14.01,2013-02-17 06:47:00,
2013-02-17 00:48:00,30.5,21.9,30.25,SW,231,1.0,1.0,70,0.00,,---,0.00,VWS V14.01,2013-02-17 06:48:00,
2013-02-17 00:51:00,30.5,22.2,30.25,SW,231,0.0,1.0,71,0.00,,---,0.00,VWS V14.01,2013-02-17 06:51:00,
2013-02-17 00:52:00,30.5,22.2,30.25,SW,231,0.0,1.0,71,0.00,,---,0.00,VWS V14.01,2013-02-17 06:52:00,
2013-02-17 00:53:00,30.5,22.2,30.25,SW,231,0.0,1.0,71,0.00,,---,0.00,VWS V14.01,2013-02-17 06:53:00,
2013-02-17 00:56:00,30.5,22.2,30.24,SW,231,0.0,1.0,71,0.00,,---,0.00,VWS V14.01,2013-02-17 06:56:00,
2013-02-17 00:57:00,30.5,22.2,30.24,SW,231,0.0,1.0,71,0.00,,---,0.00,VWS V14.01,2013-02-17 06:57:00,
2013-02-17 00:58:00,30.5,22.2,30.24,SW,231,0.0,1.0,71,0.00,,---,0.00,VWS V14.01,2013-02-17 06:58:00,
2013-02-17 01:02:00,30.6,22.3,30.24,SW,231,0.0,0.0,71,0.00,,---,0.00,VWS V14.01,2013-02-17 07:02:00,
2013-02-17 01:03:00,30.6,22.3,30.24,SW,231,0.0,0.0,71,0.00,,---,0.00,VWS V14.01,2013-02-17 07:03:00,
2013-02-17 01:07:00,30.6,22.3,30.24,SW,231,0.0,0.0,71,0.00,,---,0.00,VWS V14.01,2013-02-17 07:07:00,
2013-02-17 01:08:00,30.6,22.3,30.24,SW,231,0.0,0.0,71,0.00,,---,0.00,VWS V14.01,2013-02-17 07:08:00,
2013-02-17 01:12:00,30.6,22.3,30.25,SW,231,0.0,0.0,71,0.00,,---,0.00,VWS V14.01,2013-02-17 07:12:00,
2013-02-17 01:13:00,30.6,22.0,30.25,SW,231,0.0,0.0,70,0.00,,---,0.00,VWS V14.01,2013-02-17 07:13:00,
2013-02-17 01:17:00,30.6,22.0,30.25,SW,219,3.0,4.0,70,0.00,,---,0.00,VWS V14.01,2013-02-17 07:17:00,
2013-02-17 01:18:00,30.7,21.8,30.25,SW,229,1.0,4.0,69,0.00,,---,0.00,VWS V14.01,2013-02-17 07:18:00,
2013-02-17 01:22:00,30.8,21.9,30.25,WSW,251,1.0,4.0,69,0.00,,---,0.00,VWS V14.01,2013-02-17 07:22:00,
2013-02-17 01:23:00,30.9,21.9,30.25,WSW,251,1.0,4.0,69,0.00,,---,0.00,VWS V14.01,2013-02-17 07:23:00,
2013-02-17 01:27:00,30.9,21.9,30.24,WSW,250,0.0,4.0,69,0.00,,---,0.00,VWS V14.01,2013-02-17 07:27:00,
2013-02-17 01:28:00,30.9,21.9,30.24,WSW,250,0.0,4.0,69,0.00,,---,0.00,VWS V14.01,2013-02-17 07:28:00,
2013-02-17 01:29:00,30.9,21.9,30.24,WSW,251,0.0,4.0,69,0.00,,---,0.00,VWS V14.01,2013-02-17 07:29:00,
2013-02-17 01:32:00,31.0,22.0,30.24,WSW,250,0.0,0.0,69,0.00,,---,0.00,VWS V14.01,2013-02-17 07:32:00,
2013-02-17 01:33:00,31.0,22.0,30.24,WSW,250,0.0,0.0,69,0.00,,---,0.00,VWS V14.01,2013-02-17 07:33:00,
2013-02-17 01:34:00,31.0,22.0,30.24,WSW,250,0.0,0.0,69,0.00,,---,0.00,VWS V14.01,2013-02-17 07:34:00,
2013-02-17 01:37:00,31.0,22.0,30.24,WSW,245,1.0,2.0,69,0.00,,---,0.00,VWS V14.01,2013-02-17 07:37:00,
2013-02-17 01:38:00,31.0,22.0,30.24,SW,235,1.0,2.0,69,0.00,,---,0.00,VWS V14.01,2013-02-17 07:38:00,
2013-02-17 01:39:00,31.0,22.0,30.24,SW,235,1.0,2.0,69,0.00,,---,0.00,VWS V14.01,2013-02-17 07:39:00,
2013-02-17 01:42:00,31.0,21.7,30.24,WSW,247,1.0,2.0,68,0.00,,---,0.00,VWS V14.01,2013-02-17 07:42:00,
2013-02-17 01:43:00,31.0,21.7,30.24,WSW,246,0.0,2.0,68,0.00,,---,0.00,VWS V14.01,2013-02-17 07:43:00,
2013-02-17 01:44:00,31.0,22.0,30.24,WSW,247,1.0,2.0,69,0.00,,---,0.00,VWS V14.01,2013-02-17 07:44:00,
2013-02-17 01:47:00,31.0,21.7,30.24,WSW,247,1.0,1.0,68,0.00,,---,0.00,VWS V14.01,2013-02-17 07:47:00,
2013-02-17 01:48:00,31.0,21.7,30.24,SW,219,2.0,2.0,68,0.00,,---,0.00,VWS V14.01,2013-02-17 07:48:00,
2013-02-17 01:49:00,31.0,21.7,30.24,SW,217,0.0,4.0,68,0.00,,---,0.00,VWS V14.01,2013-02-17 07:49:00,
2013-02-17 01:52:00,31.1,21.4,30.24,SW,217,0.0,4.0,67,0.00,,---,0.00,VWS V14.01,2013-02-17 07:52:00,
2013-02-17 01:53:00,31.1,21.4,30.24,SW,232,2.0,4.0,67,0.00,,---,0.00,VWS V14.01,2013-02-17 07:53:00,
2013-02-17 01:54:00,31.1,21.4,30.24,SW,233,1.0,4.0,67,0.00,,---,0.00,VWS V14.01,2013-02-17 07:54:00,
2013-02-17 01:57:00,31.2,21.5,30.24,SW,235,2.0,4.0,67,0.00,,---,0.00,VWS V14.01,2013-02-17 07:57:00,
2013-02-17 01:58:00,31.1,21.4,30.24,SW,235,2.0,4.0,67,0.00,,---,0.00,VWS V14.01,2013-02-17 07:58:00,
2013-02-17 01:59:00,31.1,21.4,30.24,WSW,237,0.0,4.0,67,0.00,,---,0.00,VWS V14.01,2013-02-17 07:59:00,
2013-02-17 02:02:00,31.2,21.5,30.24,SW,228,1.0,2.0,67,0.00,,---,0.00,VWS V14.01,2013-02-17 08:02:00,
2013-02-17 02:03:00,31.2,21.5,30.24,SW,226,1.0,2.0,67,0.00,,---,0.00,VWS V14.01,2013-02-17 08:03:00,
2013-02-17 02:04:00,31.2,21.5,30.24,SW,235,1.0,2.0,67,0.00,,---,0.00,VWS V14.01,2013-02-17 08:04:00,
2013-02-17 02:07:00,31.2,21.5,30.24,SW,229,3.0,3.0,67,0.00,,---,0.00,VWS V14.01,2013-02-17 08:07:00,
2013-02-17 02:08:00,31.2,21.5,30.24,SW,220,2.0,3.0,67,0.00,,---,0.00,VWS V14.01,2013-02-17 08:08:00,
2013-02-17 02:10:00,31.2,21.2,30.24,SW,225,2.0,3.0,66,0.00,,---,0.00,VWS V14.01,2013-02-17 08:10:00,
2013-02-17 02:12:00,31.2,21.5,30.24,SW,225,1.0,3.0,67,0.00,,---,0.00,VWS V14.01,2013-02-17 08:12:00,
2013-02-17 02:13:00,31.2,21.5,30.24,SW,235,1.0,3.0,67,0.00,,---,0.00,VWS V14.01,2013-02-17 08:13:00,
2013-02-17 02:15:00,31.2,21.5,30.24,SW,217,2.0,3.0,67,0.00,,---,0.00,VWS V14.01,2013-02-17 08:15:00,
2013-02-17 02:18:00,31.2,21.5,30.24,SW,217,4.0,5.0,67,0.00,,---,0.00,VWS V14.01,2013-02-17 08:18:00,
2013-02-17 02:19:00,31.2,21.5,30.24,SW,223,2.0,5.0,67,0.00,,---,0.00,VWS V14.01,2013-02-17 08:19:00,
2013-02-17 02:20:00,31.2,21.5,30.24,WSW,238,1.0,5.0,67,0.00,,---,0.00,VWS V14.01,2013-02-17 08:20:00,
2013-02-17 02:23:00,31.2,21.9,30.25,SW,234,0.0,5.0,68,0.00,,---,0.00,VWS V14.01,2013-02-17 08:23:00,
2013-02-17 02:24:00,31.2,21.9,30.24,SW,214,1.0,5.0,68,0.00,,---,0.00,VWS V14.01,2013-02-17 08:24:00,
2013-02-17 02:25:00,31.2,21.9,30.24,SW,233,2.0,5.0,68,0.00,,---,0.00,VWS V14.01,2013-02-17 08:25:00,
2013-02-17 02:28:00,31.2,21.5,30.24,SSW,209,4.0,5.0,67,0.00,,---,0.00,VWS V14.01,2013-02-17 08:28:00,
2013-02-17 02:29:00,31.3,21.6,30.24,SW,235,2.0,5.0,67,0.00,,---,0.00,VWS V14.01,2013-02-17 08:29:00,
2013-02-17 02:30:00,31.3,21.6,30.24,West,262,1.0,5.0,67,0.00,,---,0.00,VWS V14.01,2013-02-17 08:30:00,
2013-02-17 02:33:00,31.4,21.7,30.25,SW,234,1.0,5.0,67,0.00,,---,0.00,VWS V14.01,2013-02-17 08:33:00,
2013-02-17 02:34:00,31.4,21.7,30.25,WSW,247,2.0,5.0,67,0.00,,---,0.00,VWS V14.01,2013-02-17 08:34:00,
2013-02-17 02:35:00,31.4,21.7,30.25,SW,233,2.0,5.0,67,0.00,,---,0.00,VWS V14.01,2013-02-17 08:35:00,
2013-02-17 02:38:00,31.4,21.7,30.25,SW,233,1.0,5.0,67,0.00,,---,0.00,VWS V14.01,2013-02-17 08:38:00,
2013-02-17 02:39:00,31.4,22.1,30.25,SW,233,1.0,5.0,68,0.00,,---,0.00,VWS V14.01,2013-02-17 08:39:00,
2013-02-17 02:40:00,31.4,22.1,30.24,SW,230,1.0,5.0,68,0.00,,---,0.00,VWS V14.01,2013-02-17 08:40:00,
2013-02-17 02:43:00,31.4,21.7,30.25,SW,236,2.0,5.0,67,0.00,,---,0.00,VWS V14.01,2013-02-17 08:43:00,
2013-02-17 02:44:00,31.5,21.8,30.25,WSW,238,1.0,5.0,67,0.00,,---,0.00,VWS V14.01,2013-02-17 08:44:00,
2013-02-17 02:45:00,31.5,22.2,30.25,SW,214,3.0,3.0,68,0.00,,---,0.00,VWS V14.01,2013-02-17 08:45:00,
2013-02-17 02:48:00,31.5,22.2,30.25,SW,228,2.0,4.0,68,0.00,,---,0.00,VWS V14.01,2013-02-17 08:48:00,
2013-02-17 02:49:00,31.5,21.8,30.25,SW,228,2.0,4.0,67,0.00,,---,0.00,VWS V14.01,2013-02-17 08:49:00,
2013-02-17 02:50:00,31.5,22.2,30.25,SW,226,3.0,4.0,68,0.00,,---,0.00,VWS V14.01,2013-02-17 08:50:00,
2013-02-17 02:53:00,31.5,21.8,30.25,South,179,4.0,5.0,67,0.00,,---,0.00,VWS V14.01,2013-02-17 08:53:00,
2013-02-17 02:54:00,31.5,21.8,30.25,SW,233,2.0,5.0,67,0.00,,---,0.00,VWS V14.01,2013-02-17 08:54:00,
2013-02-17 02:55:00,31.6,21.9,30.25,SSW,197,2.0,5.0,67,0.00,,---,0.00,VWS V14.01,2013-02-17 08:55:00,
2013-02-17 02:58:00,31.6,22.3,30.24,SSW,198,4.0,5.0,68,0.00,,---,0.00,VWS V14.01,2013-02-17 08:58:00,
2013-02-17 02:59:00,31.6,22.3,30.24,SW,221,3.0,5.0,68,0.00,,---,0.00,VWS V14.01,2013-02-17 08:59:00,
2013-02-17 03:00:00,31.6,21.9,30.24,WSW,240,2.0,2.0,67,0.00,,---,0.00,VWS V14.01,2013-02-17 09:00:00,
2013-02-17 03:03:00,31.6,21.9,30.24,SW,227,3.0,4.0,67,0.00,,---,0.00,VWS V14.01,2013-02-17 09:03:00,
2013-02-17 03:04:00,31.6,21.9,30.24,SW,215,3.0,4.0,67,0.00,,---,0.00,VWS V14.01,2013-02-17 09:04:00,
2013-02-17 03:05:00,31.6,21.9,30.24,SW,221,3.0,5.0,67,0.00,,---,0.00,VWS V14.01,2013-02-17 09:05:00,
2013-02-17 03:08:00,31.7,22.0,30.24,SSW,206,3.0,5.0,67,0.00,,---,0.00,VWS V14.01,2013-02-17 09:08:00,
2013-02-17 03:09:00,31.7,22.0,30.24,SW,223,3.0,5.0,67,0.00,,---,0.00,VWS V14.01,2013-02-17 09:09:00,
2013-02-17 03:10:00,31.7,22.0,30.24,SW,233,2.0,5.0,67,0.00,,---,0.00,VWS V14.01,2013-02-17 09:10:00,
2013-02-17 03:14:00,31.7,22.0,30.24,SSW,213,3.0,5.0,67,0.00,,---,0.00,VWS V14.01,2013-02-17 09:14:00,
2013-02-17 03:15:00,31.7,22.0,30.24,SW,228,2.0,2.0,67,0.00,,---,0.00,VWS V14.01,2013-02-17 09:15:00,
2013-02-17 03:19:00,31.7,22.0,30.23,WSW,240,1.0,3.0,67,0.00,,---,0.00,VWS V14.01,2013-02-17 09:19:00,
2013-02-17 03:21:00,31.7,22.0,30.23,SW,232,1.0,4.0,67,0.00,,---,0.00,VWS V14.01,2013-02-17 09:21:00,
2013-02-17 03:24:00,31.7,22.0,30.23,SW,226,0.0,4.0,67,0.00,,---,0.00,VWS V14.01,2013-02-17 09:24:00,
2013-02-17 03:26:00,31.7,22.0,30.23,WSW,242,1.0,4.0,67,0.00,,---,0.00,VWS V14.01,2013-02-17 09:26:00,
2013-02-17 03:29:00,31.7,22.4,30.23,WSW,239,1.0,4.0,68,0.00,,---,0.00,VWS V14.01,2013-02-17 09:29:00,
2013-02-17 03:31:00,31.7,22.0,30.23,WSW,238,0.0,1.0,67,0.00,,---,0.00,VWS V14.01,2013-02-17 09:31:00,
2013-02-17 03:34:00,31.7,22.0,30.23,SW,235,1.0,4.0,67,0.00,,---,0.00,VWS V14.01,2013-02-17 09:34:00,
2013-02-17 03:36:00,31.7,22.0,30.23,SW,217,2.0,4.0,67,0.00,,---,0.00,VWS V14.01,2013-02-17 09:36:00,
2013-02-17 03:39:00,31.7,22.0,30.23,SSW,210,3.0,4.0,67,0.00,,---,0.00,VWS V14.01,2013-02-17 09:39:00,
2013-02-17 03:41:00,31.7,22.4,30.23,SSW,209,3.0,4.0,68,0.00,,---,0.00,VWS V14.01,2013-02-17 09:41:00,
2013-02-17 03:44:00,31.7,22.4,30.23,SSW,209,3.0,5.0,68,0.00,,---,0.00,VWS V14.01,2013-02-17 09:44:00,
2013-02-17 03:46:00,31.8,22.1,30.24,SW,228,0.0,3.0,67,0.00,,---,0.00,VWS V14.01,2013-02-17 09:46:00,
2013-02-17 03:49:00,31.8,22.5,30.23,SW,231,1.0,3.0,68,0.00,,---,0.00,VWS V14.01,2013-02-17 09:49:00,
2013-02-17 03:51:00,31.8,22.1,30.23,SW,218,4.0,4.0,67,0.00,,---,0.00,VWS V14.01,2013-02-17 09:51:00,
2013-02-17 03:54:00,31.8,22.1,30.23,SSW,212,3.0,5.0,67,0.00,,---,0.00,VWS V14.01,2013-02-17 09:54:00,
2013-02-17 03:55:00,31.8,22.1,30.24,SW,219,1.0,5.0,67,0.00,,---,0.00,VWS V14.01,2013-02-17 09:55:00,
2013-02-17 03:56:00,31.8,22.1,30.23,WSW,238,0.0,5.0,67,0.00,,---,0.00,VWS V14.01,2013-02-17 09:56:00,
2013-02-17 03:59:00,31.8,22.1,30.23,WSW,237,0.0,5.0,67,0.00,,---,0.00,VWS V14.01,2013-02-17 09:59:00,
2013-02-17 04:00:00,31.8,22.1,30.23,SW,236,1.0,5.0,67,0.00,,---,0.00,VWS V14.01,2013-02-17 10:00:00,
2013-02-17 04:01:00,31.8,22.1,30.23,SSW,213,2.0,3.0,67,0.00,,---,0.00,VWS V14.01,2013-02-17 10:01:00,
2013-02-17 04:04:00,31.9,22.2,30.23,SSW,207,5.0,5.0,67,0.00,,---,0.00,VWS V14.01,2013-02-17 10:04:00,
2013-02-17 04:05:00,31.8,22.1,30.23,SW,225,2.0,5.0,67,0.00,,---,0.00,VWS V14.01,2013-02-17 10:05:00,
2013-02-17 04:06:00,31.9,22.2,30.23,SW,223,1.0,5.0,67,0.00,,---,0.00,VWS V14.01,2013-02-17 10:06:00,
2013-02-17 04:09:00,31.9,22.2,30.23,WSW,237,2.0,5.0,67,0.00,,---,0.00,VWS V14.01,2013-02-17 10:09:00,
2013-02-17 04:10:00,31.9,22.2,30.23,SW,227,2.0,5.0,67,0.00,,---,0.00,VWS V14.01,2013-02-17 10:10:00,
2013-02-17 04:11:00,31.9,22.2,30.23,SW,217,2.0,5.0,67,0.00,,---,0.00,VWS V14.01,2013-02-17 10:11:00,
2013-02-17 04:14:00,32.0,22.3,30.23,SW,225,3.0,5.0,67,0.00,,---,0.00,VWS V14.01,2013-02-17 10:14:00,
2013-02-17 04:15:00,32.0,22.3,30.23,SW,235,2.0,5.0,67,0.00,,---,0.00,VWS V14.01,2013-02-17 10:15:00,
2013-02-17 04:16:00,32.0,21.9,30.24,SSW,212,2.0,4.0,66,0.00,,---,0.00,VWS V14.01,2013-02-17 10:16:00,
2013-02-17 04:19:00,32.0,21.9,30.24,SW,221,3.0,6.0,66,0.00,,---,0.00,VWS V14.01,2013-02-17 10:19:00,
2013-02-17 04:20:00,32.0,21.9,30.24,WSW,245,4.0,6.0,66,0.00,,---,0.00,VWS V14.01,2013-02-17 10:20:00,
2013-02-17 04:21:00,32.0,21.9,30.23,WSW,239,3.0,7.0,66,0.00,,---,0.00,VWS V14.01,2013-02-17 10:21:00,
2013-02-17 04:24:00,32.1,22.0,30.23,SSW,209,3.0,7.0,66,0.00,,---,0.00,VWS V14.01,2013-02-17 10:24:00,
2013-02-17 04:25:00,32.1,22.0,30.23,SSW,213,3.0,7.0,66,0.00,,---,0.00,VWS V14.01,2013-02-17 10:25:00,
2013-02-17 04:26:00,32.1,22.0,30.24,WSW,241,1.0,7.0,66,0.00,,---,0.00,VWS V14.01,2013-02-17 10:26:00,
2013-02-17 04:27:00,32.1,22.0,30.24,WSW,241,1.0,7.0,66,0.00,,---,0.00,VWS V14.01,2013-02-17 10:27:00,
2013-02-17 04:29:00,32.1,21.7,30.24,South,176,2.0,7.0,65,0.00,,---,0.00,VWS V14.01,2013-02-17 10:29:00,
2013-02-17 04:30:00,32.1,21.7,30.24,SW,223,2.0,7.0,65,0.00,,---,0.00,VWS V14.01,2013-02-17 10:30:00,
2013-02-17 04:31:00,32.1,22.0,30.24,SSW,209,5.0,5.0,66,0.00,,---,0.00,VWS V14.01,2013-02-17 10:31:00,
2013-02-17 04:32:00,32.1,22.0,30.24,SW,221,4.0,5.0,66,0.00,,---,0.00,VWS V14.01,2013-02-17 10:32:00,
2013-02-17 04:34:00,32.1,22.0,30.24,WSW,254,2.0,5.0,66,0.00,,---,0.00,VWS V14.01,2013-02-17 10:34:00,
2013-02-17 04:35:00,32.2,22.1,30.24,WSW,239,2.0,5.0,66,0.00,,---,0.00,VWS V14.01,2013-02-17 10:35:00,
2013-02-17 04:37:00,32.2,21.8,30.24,SW,216,3.0,5.0,65,0.00,,---,0.00,VWS V14.01,2013-02-17 10:37:00,
2013-02-17 04:39:00,32.2,22.1,30.24,SW,224,2.0,5.0,66,0.00,,---,0.00,VWS V14.01,2013-02-17 10:39:00,
2013-02-17 04:40:00,32.2,22.1,30.24,WSW,237,2.0,5.0,66,0.00,,---,0.00,VWS V14.01,2013-02-17 10:40:00,
2013-02-17 04:42:00,32.3,22.2,30.24,SW,219,2.0,5.0,66,0.00,,---,0.00,VWS V14.01,2013-02-17 10:42:00,
2013-02-17 04:45:00,32.3,21.9,30.24,SSW,211,2.0,6.0,65,0.00,,---,0.00,VWS V14.01,2013-02-17 10:45:00,
2013-02-17 04:47:00,32.3,21.9,30.24,SW,216,3.0,6.0,65,0.00,,---,0.00,VWS V14.01,2013-02-17 10:47:00,
2013-02-17 04:50:00,32.4,22.0,30.24,SW,235,1.0,6.0,65,0.00,,---,0.00,VWS V14.01,2013-02-17 10:50:00,
2013-02-17 04:52:00,32.4,22.0,30.24,SW,234,1.0,6.0,65,0.00,,---,0.00,VWS V14.01,2013-02-17 10:52:00,
2013-02-17 04:55:00,32.4,22.0,30.24,SW,216,4.0,6.0,65,0.00,,---,0.00,VWS V14.01,2013-02-17 10:55:00,
2013-02-17 04:57:00,32.4,22.0,30.24,SSW,207,4.0,6.0,65,0.00,,---,0.00,VWS V14.01,2013-02-17 10:57:00,
2013-02-17 05:00:00,32.4,22.0,30.24,SW,217,3.0,6.0,65,0.00,,---,0.00,VWS V14.01,2013-02-17 11:00:00,
2013-02-17 05:02:00,32.4,22.0,30.25,SW,235,2.0,3.0,65,0.00,,---,0.00,VWS V14.01,2013-02-17 11:02:00,
2013-02-17 05:05:00,32.4,22.0,30.25,SW,220,3.0,3.0,65,0.00,,---,0.00,VWS V14.01,2013-02-17 11:05:00,
2013-02-17 05:07:00,32.4,22.0,30.25,SW,219,3.0,4.0,65,0.00,,---,0.00,VWS V14.01,2013-02-17 11:07:00,
2013-02-17 05:10:00,32.4,22.0,30.25,SW,228,3.0,4.0,65,0.00,,---,0.00,VWS V14.01,2013-02-17 11:10:00,
2013-02-17 05:12:00,32.4,22.3,30.25,SW,226,2.0,4.0,66,0.00,,---,0.00,VWS V14.01,2013-02-17 11:12:00,
2013-02-17 05:15:00,32.4,22.3,30.25,SW,223,2.0,2.0,66,0.00,,---,0.00,VWS V14.01,2013-02-17 11:15:00,
2013-02-17 05:17:00,32.4,22.3,30.25,SW,218,2.0,3.0,66,0.00,,---,0.00,VWS V14.01,2013-02-17 11:17:00,
2013-02-17 05:18:00,32.4,22.3,30.25,SW,229,1.0,3.0,66,0.00,,---,0.00,VWS V14.01,2013-02-17 11:18:00,
2013-02-17 05:21:00,32.5,22.0,30.25,SW,234,1.0,5.0,66,0.00,,,0.00,weatherlink.com 1.10,2013-02-17 11:21:00,
2013-02-17 05:22:00,32.5,22.4,30.25,WSW,241,1.0,3.0,66,0.00,,---,0.00,VWS V14.01,2013-02-17 11:22:00,
2013-02-17 05:23:00,32.5,22.4,30.25,SW,221,2.0,3.0,66,0.00,,---,0.00,VWS V14.01,2013-02-17 11:23:00,
2013-02-17 05:26:00,32.5,22.1,30.25,South,189,2.0,5.0,65,0.00,,---,0.00,VWS V14.01,2013-02-17 11:26:00,
2013-02-17 05:27:00,32.5,22.1,30.25,SW,214,2.0,5.0,65,0.00,,---,0.00,VWS V14.01,2013-02-17 11:27:00,
2013-02-17 05:28:00,32.5,22.4,30.25,SW,228,2.0,5.0,66,0.00,,---,0.00,VWS V14.01,2013-02-17 11:28:00,
2013-02-17 05:31:00,32.5,22.4,30.25,WSW,243,1.0,2.0,66,0.00,,---,0.00,VWS V14.01,2013-02-17 11:31:00,
2013-02-17 05:32:00,32.5,22.4,30.25,SW,223,3.0,3.0,66,0.00,,---,0.00,VWS V14.01,2013-02-17 11:32:00,
2013-02-17 05:33:00,32.5,22.4,30.25,SW,228,0.0,3.0,66,0.00,,---,0.00,VWS V14.01,2013-02-17 11:33:00,
2013-02-17 05:36:00,32.5,22.4,30.25,SW,228,2.0,4.0,66,0.00,,---,0.00,VWS V14.01,2013-02-17 11:36:00,
2013-02-17 05:37:00,32.5,22.4,30.25,SSW,209,2.0,4.0,66,0.00,,---,0.00,VWS V14.01,2013-02-17 11:37:00,
2013-02-17 05:38:00,32.5,22.4,30.25,SSW,204,3.0,4.0,66,0.00,,---,0.00,VWS V14.01,2013-02-17 11:38:00,
2013-02-17 05:41:00,32.5,22.4,30.25,SW,217,1.0,6.0,66,0.00,,---,0.00,VWS V14.01,2013-02-17 11:41:00,
2013-02-17 05:42:00,32.6,22.5,30.25,SW,221,4.0,6.0,66,0.00,,---,0.00,VWS V14.01,2013-02-17 11:42:00,
2013-02-17 05:43:00,32.5,22.1,30.25,SSW,198,3.0,6.0,65,0.00,,---,0.00,VWS V14.01,2013-02-17 11:43:00,
2013-02-17 05:47:00,32.5,22.4,30.25,SW,236,2.0,2.0,66,0.00,,---,0.00,VWS V14.01,2013-02-17 11:47:00,
2013-02-17 05:48:00,32.5,22.4,30.25,SW,235,1.0,2.0,66,0.00,,---,0.00,VWS V14.01,2013-02-17 11:48:00,
2013-02-17 05:49:00,32.5,22.4,30.25,SW,221,2.0,2.0,66,0.00,,---,0.00,VWS V14.01,2013-02-17 11:49:00,
2013-02-17 05:52:00,32.5,22.4,30.25,SSW,205,2.0,6.0,66,0.00,,---,0.00,VWS V14.01,2013-02-17 11:52:00,
2013-02-17 05:53:00,32.5,22.4,30.25,WSW,240,1.0,6.0,66,0.00,,---,0.00,VWS V14.01,2013-02-17 11:53:00,
2013-02-17 05:54:00,32.5,22.4,30.25,SSW,205,4.0,6.0,66,0.00,,---,0.00,VWS V14.01,2013-02-17 11:54:00,
2013-02-17 05:57:00,32.6,22.5,30.25,SW,216,3.0,6.0,66,0.00,,---,0.00,VWS V14.01,2013-02-17 11:57:00,
2013-02-17 05:58:00,32.6,22.5,30.25,SW,224,2.0,6.0,66,0.00,,---,0.00,VWS V14.01,2013-02-17 11:58:00,
2013-02-17 05:59:00,32.6,22.5,30.25,SW,221,2.0,6.0,66,0.00,,---,0.00,VWS V14.01,2013-02-17 11:59:00,
2013-02-17 06:02:00,32.6,22.5,30.25,SW,230,3.0,5.0,66,0.00,,---,0.00,VWS V14.01,2013-02-17 12:02:00,
2013-02-17 06:03:00,32.6,22.5,30.25,WSW,238,3.0,5.0,66,0.00,,---,0.00,VWS V14.01,2013-02-17 12:03:00,
2013-02-17 06:04:00,32.6,22.5,30.25,SW,220,1.0,5.0,66,0.00,,---,0.00,VWS V14.01,2013-02-17 12:04:00,
2013-02-17 06:07:00,32.6,22.9,30.25,WSW,240,1.0,5.0,67,0.00,,---,0.00,VWS V14.01,2013-02-17 12:07:00,
2013-02-17 06:08:00,32.6,22.9,30.25,SW,225,3.0,5.0,67,0.00,,---,0.00,VWS V14.01,2013-02-17 12:08:00,
2013-02-17 06:09:00,32.6,22.9,30.25,SW,230,1.0,5.0,67,0.00,,---,0.00,VWS V14.01,2013-02-17 12:09:00,
2013-02-17 06:12:00,32.6,22.9,30.25,SW,226,1.0,5.0,67,0.00,,---,0.00,VWS V14.01,2013-02-17 12:12:00,
2013-02-17 06:13:00,32.6,22.9,30.25,SW,225,2.0,5.0,67,0.00,,---,0.00,VWS V14.01,2013-02-17 12:13:00,
2013-02-17 06:14:00,32.6,22.9,30.25,SSW,212,3.0,5.0,67,0.00,,---,0.00,VWS V14.01,2013-02-17 12:14:00,
2013-02-17 06:17:00,32.6,22.9,30.25,SW,233,2.0,3.0,67,0.00,,---,0.00,VWS V14.01,2013-02-17 12:17:00,
2013-02-17 06:18:00,32.7,23.0,30.25,SSE,163,3.0,3.0,67,0.00,,---,0.00,VWS V14.01,2013-02-17 12:18:00,
2013-02-17 06:19:00,32.7,23.0,30.25,SSW,194,4.0,4.0,67,0.00,,---,0.00,VWS V14.01,2013-02-17 12:19:00,
2013-02-17 06:22:00,32.6,22.9,30.25,SW,220,2.0,6.0,67,0.00,,---,0.00,VWS V14.01,2013-02-17 12:22:00,
2013-02-17 06:23:00,32.6,22.9,30.25,SSW,213,3.0,6.0,67,0.00,,---,0.00,VWS V14.01,2013-02-17 12:23:00,
2013-02-17 06:24:00,32.6,22.9,30.25,SSW,209,2.0,6.0,67,0.00,,---,0.00,VWS V14.01,2013-02-17 12:24:00,
2013-02-17 06:27:00,32.7,23.0,30.25,SW,217,3.0,6.0,67,0.00,,---,0.00,VWS V14.01,2013-02-17 12:27:00,
2013-02-17 06:28:00,32.6,22.9,30.25,SW,219,4.0,6.0,67,0.00,,---,0.00,VWS V14.01,2013-02-17 12:28:00,
2013-02-17 06:30:00,32.7,23.0,30.25,WSW,245,1.0,6.0,67,0.00,,---,0.00,VWS V14.01,2013-02-17 12:30:00,
2013-02-17 06:32:00,32.7,23.0,30.25,SW,219,4.0,5.0,67,0.00,,---,0.00,VWS V14.01,2013-02-17 12:32:00,
2013-02-17 06:33:00,32.7,23.0,30.25,SW,217,3.0,5.0,67,0.00,,---,0.00,VWS V14.01,2013-02-17 12:33:00,
2013-02-17 06:35:00,32.7,23.3,30.25,SW,235,2.0,5.0,68,0.00,,---,0.00,VWS V14.01,2013-02-17 12:35:00,
2013-02-17 06:37:00,32.7,23.3,30.25,SW,221,2.0,5.0,68,0.00,,---,0.00,VWS V14.01,2013-02-17 12:37:00,
2013-02-17 06:38:00,32.7,23.3,30.25,SW,235,3.0,5.0,68,0.00,,---,0.00,VWS V14.01,2013-02-17 12:38:00,
2013-02-17 06:40:00,32.7,23.0,30.25,SSW,202,3.0,5.0,67,0.00,,---,0.00,VWS V14.01,2013-02-17 12:40:00,
2013-02-17 06:43:00,32.7,23.3,30.25,SW,232,1.0,5.0,68,0.00,,---,0.00,VWS V14.01,2013-02-17 12:43:00,
2013-02-17 06:45:00,32.7,23.3,30.25,SW,216,3.0,5.0,68,0.00,,---,0.00,VWS V14.01,2013-02-17 12:45:00,
2013-02-17 06:48:00,32.7,23.3,30.25,South,191,3.0,4.0,68,0.00,,---,0.00,VWS V14.01,2013-02-17 12:48:00,
2013-02-17 06:50:00,32.7,23.7,30.25,SW,226,1.0,4.0,69,0.00,,---,0.00,VWS V14.01,2013-02-17 12:50:00,
2013-02-17 06:53:00,32.7,23.7,30.25,SW,216,2.0,4.0,69,0.00,,---,0.00,VWS V14.01,2013-02-17 12:53:00,
2013-02-17 06:54:00,32.7,23.7,30.25,SSW,206,2.0,4.0,69,0.00,,---,0.00,VWS V14.01,2013-02-17 12:54:00,
2013-02-17 06:55:00,32.6,23.6,30.25,SW,216,2.0,4.0,69,0.00,,---,0.00,VWS V14.01,2013-02-17 12:55:00,
2013-02-17 06:58:00,32.7,23.7,30.25,SW,228,1.0,4.0,69,0.00,,---,0.00,VWS V14.01,2013-02-17 12:58:00,
2013-02-17 06:59:00,32.7,23.7,30.25,SW,228,1.0,4.0,69,0.00,,---,0.00,VWS V14.01,2013-02-17 12:59:00,
2013-02-17 07:00:00,32.6,23.6,30.25,SSW,193,2.0,3.0,69,0.00,,---,0.00,VWS V14.01,2013-02-17 13:00:00,
2013-02-17 07:03:00,32.7,23.7,30.24,SSW,209,1.0,4.0,69,0.00,,---,0.00,VWS V14.01,2013-02-17 13:03:00,
2013-02-17 07:04:00,32.7,23.7,30.24,WSW,239,2.0,4.0,69,0.00,,---,0.00,VWS V14.01,2013-02-17 13:04:00,
2013-02-17 07:06:00,32.7,23.7,30.25,SW,227,2.0,4.0,69,0.00,,---,0.00,VWS V14.01,2013-02-17 13:06:00,
2013-02-17 07:08:00,32.7,24.0,30.25,SW,233,1.0,4.0,70,0.00,,---,0.00,VWS V14.01,2013-02-17 13:08:00,
2013-02-17 07:09:00,32.7,24.0,30.25,SW,228,1.0,4.0,70,0.00,,---,0.00,VWS V14.01,2013-02-17 13:09:00,
2013-02-17 07:11:00,32.7,24.0,30.24,SW,221,2.0,5.0,70,0.00,,---,0.00,VWS V14.01,2013-02-17 13:11:00,
2013-02-17 07:13:00,32.7,24.0,30.25,SW,217,6.0,6.0,70,0.00,,---,0.00,VWS V14.01,2013-02-17 13:13:00,
2013-02-17 07:14:00,32.7,24.0,30.25,SW,228,4.0,6.0,70,0.00,,---,0.00,VWS V14.01,2013-02-17 13:14:00,
2013-02-17 07:16:00,32.7,24.0,30.25,SW,232,1.0,4.0,70,0.00,,---,0.00,VWS V14.01,2013-02-17 13:16:00,
2013-02-17 07:19:00,32.7,24.0,30.26,WSW,237,3.0,4.0,70,0.00,,---,0.00,VWS V14.01,2013-02-17 13:19:00,
2013-02-17 07:22:00,32.7,24.0,30.26,SW,218,4.0,4.0,70,0.00,,---,0.00,VWS V14.01,2013-02-17 13:22:00,
2013-02-17 07:24:00,32.8,24.1,30.26,SSW,204,2.0,4.0,70,0.00,,---,0.00,VWS V14.01,2013-02-17 13:24:00,
2013-02-17 07:27:00,32.9,23.9,30.26,WSW,244,2.0,5.0,69,0.00,,---,0.00,VWS V14.01,2013-02-17 13:27:00,
2013-02-17 07:29:00,32.9,23.9,30.26,SSW,205,4.0,5.0,69,0.00,,---,0.00,VWS V14.01,2013-02-17 13:29:00,
2013-02-17 07:32:00,33.0,24.0,30.26,WSW,257,1.0,4.0,69,0.00,,---,0.00,VWS V14.01,2013-02-17 13:32:00,
2013-02-17 07:34:00,33.1,24.0,30.26,SSW,209,1.0,4.0,69,0.00,,---,0.00,VWS V14.01,2013-02-17 13:34:00,
2013-02-17 07:37:00,33.2,23.8,30.26,SW,221,3.0,8.0,68,0.00,,---,0.00,VWS V14.01,2013-02-17 13:37:00,
2013-02-17 07:39:00,33.3,23.9,30.26,SW,219,3.0,8.0,68,0.00,,---,0.00,VWS V14.01,2013-02-17 13:39:00,
2013-02-17 07:42:00,33.4,23.6,30.26,WSW,254,3.0,8.0,67,0.00,,---,0.00,VWS V14.01,2013-02-17 13:42:00,
2013-02-17 07:44:00,33.5,23.7,30.26,SW,217,4.0,8.0,67,0.00,,---,0.00,VWS V14.01,2013-02-17 13:44:00,
2013-02-17 07:45:00,33.5,23.7,30.26,SW,219,1.0,8.0,67,0.00,,---,0.00,VWS V14.01,2013-02-17 13:45:00,
2013-02-17 07:48:00,33.6,23.8,30.26,WSW,245,2.0,4.0,67,0.00,,---,0.00,VWS V14.01,2013-02-17 13:48:00,
2013-02-17 07:49:00,33.7,23.9,30.26,SSW,198,8.0,8.0,67,0.00,,---,0.00,VWS V14.01,2013-02-17 13:49:00,
2013-02-17 07:50:00,33.7,23.9,30.26,SW,219,7.0,9.0,67,0.00,,---,0.00,VWS V14.01,2013-02-17 13:50:00,
2013-02-17 07:53:00,33.9,23.8,30.26,WSW,241,2.0,9.0,66,0.00,,---,0.00,VWS V14.01,2013-02-17 13:53:00,
2013-02-17 07:54:00,33.9,23.8,30.26,SW,218,4.0,9.0,66,0.00,,---,0.00,VWS V14.01,2013-02-17 13:54:00,
2013-02-17 07:55:00,33.9,23.8,30.26,SSW,192,6.0,9.0,66,0.00,,---,0.00,VWS V14.01,2013-02-17 13:55:00,
2013-02-17 07:58:00,34.0,23.5,30.26,SSW,200,7.0,9.0,65,0.00,,---,0.00,VWS V14.01,2013-02-17 13:58:00,
2013-02-17 07:59:00,34.1,23.6,30.26,WSW,258,2.0,9.0,65,0.00,,---,0.00,VWS V14.01,2013-02-17 13:59:00,
2013-02-17 08:00:00,34.1,23.6,30.26,SW,225,2.0,9.0,65,0.00,,---,0.00,VWS V14.01,2013-02-17 14:00:00,
2013-02-17 08:03:00,34.2,23.7,30.26,SW,225,4.0,7.0,65,0.00,,---,0.00,VWS V14.01,2013-02-17 14:03:00,
2013-02-17 08:04:00,34.2,23.7,30.26,South,179,6.0,7.0,65,0.00,,---,0.00,VWS V14.01,2013-02-17 14:04:00,
2013-02-17 08:05:00,34.3,23.8,30.26,SSW,204,3.0,7.0,65,0.00,,---,0.00,VWS V14.01,2013-02-17 14:05:00,
2013-02-17 08:08:00,34.4,23.9,30.27,SSW,209,3.0,7.0,65,0.00,,---,0.00,VWS V14.01,2013-02-17 14:08:00,
2013-02-17 08:09:00,34.5,24.0,30.27,SW,227,4.0,7.0,65,0.00,,---,0.00,VWS V14.01,2013-02-17 14:09:00,
2013-02-17 08:10:00,34.5,24.0,30.27,WSW,256,3.0,7.0,65,0.00,,---,0.00,VWS V14.01,2013-02-17 14:10:00,
2013-02-17 08:13:00,34.7,23.8,30.27,SW,233,4.0,7.0,64,0.00,,---,0.00,VWS V14.01,2013-02-17 14:13:00,
2013-02-17 08:14:00,34.7,23.8,30.27,SSW,213,6.0,7.0,64,0.00,,---,0.00,VWS V14.01,2013-02-17 14:14:00,
2013-02-17 08:15:00,34.7,23.8,30.27,SW,221,4.0,7.0,64,0.00,,---,0.00,VWS V14.01,2013-02-17 14:15:00,
2013-02-17 08:18:00,34.9,23.6,30.27,South,180,5.0,8.0,63,0.00,,---,0.00,VWS V14.01,2013-02-17 14:18:00,
2013-02-17 08:20:00,34.9,23.6,30.27,SW,233,3.0,8.0,63,0.00,,---,0.00,VWS V14.01,2013-02-17 14:20:00,
2013-02-17 08:23:00,35.1,23.8,30.27,SW,233,4.0,8.0,63,0.00,,---,0.00,VWS V14.01,2013-02-17 14:23:00,
2013-02-17 08:25:00,35.1,23.8,30.27,WSW,245,3.0,8.0,63,0.00,,---,0.00,VWS V14.01,2013-02-17 14:25:00,
2013-02-17 08:26:00,35.2,23.9,30.27,SW,223,2.0,8.0,63,0.00,,---,0.00,VWS V14.01,2013-02-17 14:26:00,
2013-02-17 08:28:00,35.3,24.0,30.27,South,181,7.0,8.0,63,0.00,,---,0.00,VWS V14.01,2013-02-17 14:28:00,
2013-02-17 08:30:00,35.3,23.6,30.27,SSW,207,7.0,8.0,62,0.00,,---,0.00,VWS V14.01,2013-02-17 14:30:00,
2013-02-17 08:31:00,35.4,23.7,30.27,SSW,209,4.0,6.0,62,0.00,,---,0.00,VWS V14.01,2013-02-17 14:31:00,
2013-02-17 08:34:00,35.5,23.8,30.27,SSW,204,4.0,6.0,62,0.00,,---,0.00,VWS V14.01,2013-02-17 14:34:00,
2013-02-17 08:35:00,35.6,23.9,30.27,SW,220,6.0,8.0,62,0.00,,---,0.00,VWS V14.01,2013-02-17 14:35:00,
2013-02-17 08:36:00,35.7,24.0,30.27,SSW,209,8.0,8.0,62,0.00,,---,0.00,VWS V14.01,2013-02-17 14:36:00,
2013-02-17 08:39:00,35.8,24.1,30.27,SSW,192,3.0,8.0,62,0.00,,---,0.00,VWS V14.01,2013-02-17 14:39:00,
2013-02-17 08:40:00,35.8,24.1,30.27,SW,235,4.0,8.0,62,0.00,,---,0.00,VWS V14.01,2013-02-17 14:40:00,
2013-02-17 08:41:00,35.9,23.8,30.28,South,177,3.0,8.0,61,0.00,,---,0.00,VWS V14.01,2013-02-17 14:41:00,
2013-02-17 08:44:00,36.0,23.9,30.28,SW,235,6.0,8.0,61,0.00,,---,0.00,VWS V14.01,2013-02-17 14:44:00,
2013-02-17 08:45:00,36.1,24.0,30.28,WSW,248,3.0,8.0,61,0.00,,---,0.00,VWS V14.01,2013-02-17 14:45:00,
2013-02-17 08:46:00,36.2,24.1,30.28,SW,221,4.0,4.0,61,0.00,,---,0.00,VWS V14.01,2013-02-17 14:46:00,
2013-02-17 08:49:00,36.3,23.8,30.28,WSW,247,2.0,7.0,60,0.00,,---,0.00,VWS V14.01,2013-02-17 14:49:00,
2013-02-17 08:50:00,36.4,23.9,30.27,WSW,240,2.0,7.0,60,0.00,,---,0.00,VWS V14.01,2013-02-17 14:50:00,
2013-02-17 08:51:00,36.4,23.9,30.27,South,179,5.0,7.0,60,0.00,,---,0.00,VWS V14.01,2013-02-17 14:51:00,
2013-02-17 08:54:00,36.6,24.0,30.27,West,260,2.0,9.0,60,0.00,,---,0.00,VWS V14.01,2013-02-17 14:54:00,
2013-02-17 08:56:00,36.7,23.7,30.27,WSW,240,3.0,9.0,59,0.00,,---,0.00,VWS V14.01,2013-02-17 14:56:00,
2013-02-17 08:57:00,36.7,23.3,30.27,SW,236,4.0,9.0,58,0.00,,---,0.00,VWS V14.01,2013-02-17 14:57:00,
2013-02-17 08:59:00,36.8,24.2,30.28,South,179,3.0,9.0,60,0.00,,---,0.00,VWS V14.01,2013-02-17 14:59:00,
2013-02-17 09:01:00,37.0,24.0,30.27,SSW,193,2.0,4.0,59,0.00,,---,0.00,VWS V14.01,2013-02-17 15:01:00,
2013-02-17 09:02:00,37.1,23.7,30.28,SSE,158,3.0,6.0,58,0.00,,---,0.00,VWS V14.01,2013-02-17 15:02:00,
2013-02-17 09:04:00,37.2,23.8,30.27,South,191,5.0,8.0,58,0.00,,---,0.00,VWS V14.01,2013-02-17 15:04:00,
2013-02-17 09:06:00,37.3,23.9,30.28,WSW,243,2.0,8.0,58,0.00,,---,0.00,VWS V14.01,2013-02-17 15:06:00,
2013-02-17 09:07:00,37.5,24.1,30.27,SSW,206,5.0,8.0,58,0.00,,---,0.00,VWS V14.01,2013-02-17 15:07:00,
2013-02-17 09:09:00,37.6,23.8,30.27,SW,221,3.0,9.0,57,0.00,,---,0.00,VWS V14.01,2013-02-17 15:09:00,
2013-02-17 09:11:00,37.7,24.3,30.27,WSW,245,1.0,9.0,58,0.00,,---,0.00,VWS V14.01,2013-02-17 15:11:00,
2013-02-17 09:12:00,37.8,24.8,30.27,WSW,258,1.0,9.0,59,0.00,,---,0.00,VWS V14.01,2013-02-17 15:12:00,
2013-02-17 09:14:00,38.0,24.1,30.27,WSW,250,3.0,9.0,57,0.00,,---,0.00,VWS V14.01,2013-02-17 15:14:00,
2013-02-17 09:16:00,38.1,24.2,30.27,SW,228,3.0,5.0,57,0.00,,---,0.00,VWS V14.01,2013-02-17 15:16:00,
2013-02-17 09:17:00,38.1,24.2,30.27,WSW,238,3.0,5.0,57,0.00,,---,0.00,VWS V14.01,2013-02-17 15:17:00,
2013-02-17 09:18:00,38.2,24.3,30.27,SW,221,4.0,5.0,57,0.00,,---,0.00,VWS V14.01,2013-02-17 15:18:00,
2013-02-17 09:20:00,38.3,24.0,30.27,SSW,197,6.0,6.0,56,0.00,,---,0.00,VWS V14.01,2013-02-17 15:20:00,
2013-02-17 09:21:00,38.4,24.1,30.27,SSW,195,7.0,9.0,56,0.00,,---,0.00,VWS V14.01,2013-02-17 15:21:00,
2013-02-17 09:22:00,38.4,23.7,30.27,SSW,202,7.0,9.0,55,0.00,,---,0.00,VWS V14.01,2013-02-17 15:22:00,
2013-02-17 09:23:00,38.4,23.7,30.27,South,191,6.0,9.0,55,0.00,,---,0.00,VWS V14.01,2013-02-17 15:23:00,
2013-02-17 09:25:00,38.6,24.3,30.27,SW,225,6.0,9.0,56,0.00,,---,0.00,VWS V14.01,2013-02-17 15:25:00,
2013-02-17 09:26:00,38.7,23.9,30.27,WSW,245,4.0,9.0,55,0.00,,---,0.00,VWS V14.01,2013-02-17 15:26:00,
2013-02-17 09:27:00,38.7,23.9,30.27,SW,236,3.0,9.0,55,0.00,,---,0.00,VWS V14.01,2013-02-17 15:27:00,
2013-02-17 09:28:00,38.7,23.9,30.27,South,172,4.0,9.0,55,0.00,,---,0.00,VWS V14.01,2013-02-17 15:28:00,
2013-02-17 09:30:00,38.8,24.0,30.27,SW,219,1.0,9.0,55,0.00,,---,0.00,VWS V14.01,2013-02-17 15:30:00,
2013-02-17 09:31:00,38.9,24.1,30.27,SW,228,4.0,5.0,55,0.00,,---,0.00,VWS V14.01,2013-02-17 15:31:00,
2013-02-17 09:32:00,38.9,24.1,30.27,WSW,245,3.0,5.0,55,0.00,,---,0.00,VWS V14.01,2013-02-17 15:32:00,
2013-02-17 09:33:00,39.1,24.3,30.27,SW,216,1.0,5.0,55,0.00,,---,0.00,VWS V14.01,2013-02-17 15:33:00,
2013-02-17 09:35:00,39.2,24.0,30.27,SSW,207,2.0,7.0,54,0.00,,---,0.00,VWS V14.01,2013-02-17 15:35:00,
2013-02-17 09:37:00,39.4,24.1,30.27,SW,226,2.0,7.0,54,0.00,,---,0.00,VWS V14.01,2013-02-17 15:37:00,
2013-02-17 09:38:00,39.6,24.3,30.27,SW,235,4.0,7.0,54,0.00,,---,0.00,VWS V14.01,2013-02-17 15:38:00,
2013-02-17 09:40:00,39.8,24.5,30.27,SW,216,3.0,7.0,54,0.00,,---,0.00,VWS V14.01,2013-02-17 15:40:00,
2013-02-17 09:42:00,40.0,24.3,30.27,SSW,193,4.0,7.0,53,0.00,,---,0.00,VWS V14.01,2013-02-17 15:42:00,
2013-02-17 09:43:00,40.1,23.4,30.27,SSW,211,4.0,7.0,51,0.00,,---,0.00,VWS V14.01,2013-02-17 15:43:00,
2013-02-17 09:45:00,40.2,23.5,30.27,South,179,4.0,4.0,51,0.00,,---,0.00,VWS V14.01,2013-02-17 15:45:00,
2013-02-17 09:47:00,40.3,23.1,30.27,SSW,193,2.0,7.0,50,0.00,,---,0.00,VWS V14.01,2013-02-17 15:47:00,
2013-02-17 09:48:00,40.5,22.9,30.27,SSW,210,5.0,13.0,49,0.00,,---,0.00,VWS V14.01,2013-02-17 15:48:00,
2013-02-17 09:50:00,40.7,22.5,30.27,South,182,3.0,13.0,48,0.00,,---,0.00,VWS V14.01,2013-02-17 15:50:00,
2013-02-17 09:52:00,40.8,22.6,30.27,WSW,243,8.0,13.0,48,0.00,,---,0.00,VWS V14.01,2013-02-17 15:52:00,
2013-02-17 09:53:00,40.8,22.6,30.27,South,173,9.0,13.0,48,0.00,,---,0.00,VWS V14.01,2013-02-17 15:53:00,
2013-02-17 09:55:00,40.8,22.6,30.27,SW,231,5.0,13.0,48,0.00,,---,0.00,VWS V14.01,2013-02-17 15:55:00,
2013-02-17 09:57:00,40.9,22.7,30.27,SW,221,4.0,13.0,48,0.00,,---,0.00,VWS V14.01,2013-02-17 15:57:00,
2013-02-17 09:58:00,41.0,22.3,30.27,SW,218,5.0,13.0,47,0.00,,---,0.00,VWS V14.01,2013-02-17 15:58:00,
2013-02-17 10:00:00,41.0,22.3,30.27,WSW,251,4.0,5.0,47,0.00,,---,0.00,VWS V14.01,2013-02-17 16:00:00,
2013-02-17 10:02:00,41.1,22.4,30.27,SW,235,5.0,6.0,47,0.00,,---,0.00,VWS V14.01,2013-02-17 16:02:00,
2013-02-17 10:03:00,41.2,23.0,30.27,WSW,238,3.0,9.0,48,0.00,,---,0.00,VWS V14.01,2013-02-17 16:03:00,
2013-02-17 10:05:00,41.3,22.1,30.27,WSW,240,5.0,9.0,46,0.00,,---,0.00,VWS V14.01,2013-02-17 16:05:00,
2013-02-17 10:07:00,41.3,22.6,30.27,WSW,253,3.0,9.0,47,0.00,,---,0.00,VWS V14.01,2013-02-17 16:07:00,
2013-02-17 10:08:00,41.5,22.3,30.27,WSW,247,6.0,9.0,46,0.00,,---,0.00,VWS V14.01,2013-02-17 16:08:00,
2013-02-17 10:11:00,41.5,22.3,30.27,WSW,242,4.0,9.0,46,0.00,,---,0.00,VWS V14.01,2013-02-17 16:11:00,
2013-02-17 10:12:00,41.6,22.9,30.27,West,260,3.0,9.0,47,0.00,,---,0.00,VWS V14.01,2013-02-17 16:12:00,
2013-02-17 10:13:00,41.7,23.0,30.27,West,278,4.0,9.0,47,0.00,,---,0.00,VWS V14.01,2013-02-17 16:13:00,
2013-02-17 10:15:00,41.9,22.6,30.27,SW,234,7.0,10.0,46,0.00,,---,0.00,VWS V14.01,2013-02-17 16:15:00,
2013-02-17 10:17:00,41.8,22.0,30.27,WSW,240,8.0,11.0,45,0.00,,---,0.00,VWS V14.01,2013-02-17 16:17:00,
2013-02-17 10:19:00,41.7,21.9,30.27,WSW,239,4.0,13.0,45,0.00,,---,0.00,VWS V14.01,2013-02-17 16:19:00,
2013-02-17 10:21:00,41.8,22.5,30.27,WSW,240,3.0,13.0,46,0.00,,---,0.00,VWS V14.01,2013-02-17 16:21:00,
2013-02-17 10:22:00,41.9,22.6,30.27,SW,233,1.0,13.0,46,0.00,,---,0.00,VWS V14.01,2013-02-17 16:22:00,
2013-02-17 10:23:00,41.9,22.6,30.27,SW,216,1.0,13.0,46,0.00,,---,0.00,VWS V14.01,2013-02-17 16:23:00,
2013-02-17 10:24:00,42.0,23.2,30.27,SSW,212,2.0,13.0,47,0.00,,---,0.00,VWS V14.01,2013-02-17 16:24:00,
2013-02-17 10:26:00,42.4,23.6,30.27,WSW,247,3.0,13.0,47,0.00,,---,0.00,VWS V14.01,2013-02-17 16:26:00,
2013-02-17 10:27:00,42.6,22.8,30.27,WSW,254,7.0,13.0,45,0.00,,---,0.00,VWS V14.01,2013-02-17 16:27:00,
2013-02-17 10:28:00,42.6,22.8,30.27,SW,221,7.0,13.0,45,0.00,,---,0.00,VWS V14.01,2013-02-17 16:28:00,
2013-02-17 10:29:00,42.5,22.1,30.27,WSW,247,6.0,13.0,44,0.00,,---,0.00,VWS V14.01,2013-02-17 16:29:00,
2013-02-17 10:31:00,42.5,22.7,30.27,SSW,198,8.0,13.0,45,0.00,,---,0.00,VWS V14.01,2013-02-17 16:31:00,
2013-02-17 10:33:00,42.5,22.7,30.27,SW,233,8.0,13.0,45,0.00,,---,0.00,VWS V14.01,2013-02-17 16:33:00,
2013-02-17 10:34:00,42.6,22.8,30.27,SW,221,5.0,13.0,45,0.00,,---,0.00,VWS V14.01,2013-02-17 16:34:00,
2013-02-17 10:36:00,42.7,22.9,30.27,SW,233,2.0,13.0,45,0.00,,---,0.00,VWS V14.01,2013-02-17 16:36:00,
2013-02-17 10:38:00,42.9,23.0,30.27,SSW,212,12.0,13.0,45,0.00,,---,0.00,VWS V14.01,2013-02-17 16:38:00,
2013-02-17 10:39:00,43.0,22.6,30.27,WSW,245,7.0,13.0,44,0.00,,---,0.00,VWS V14.01,2013-02-17 16:39:00,
2013-02-17 10:41:00,43.0,23.1,30.27,SW,228,4.0,13.0,45,0.00,,---,0.00,VWS V14.01,2013-02-17 16:41:00,
2013-02-17 10:43:00,43.1,23.2,30.27,SSW,212,7.0,13.0,45,0.00,,---,0.00,VWS V14.01,2013-02-17 16:43:00,
2013-02-17 10:44:00,43.1,23.2,30.27,WSW,249,10.0,13.0,45,0.00,,---,0.00,VWS V14.01,2013-02-17 16:44:00,
2013-02-17 10:46:00,43.0,22.6,30.27,SW,233,10.0,10.0,44,0.00,,---,0.00,VWS V14.01,2013-02-17 16:46:00,
2013-02-17 10:48:00,42.8,21.9,30.27,WSW,239,9.0,10.0,43,0.00,,---,0.00,VWS V14.01,2013-02-17 16:48:00,
2013-02-17 10:49:00,42.7,21.8,30.26,SSW,202,4.0,10.0,43,0.00,,---,0.00,VWS V14.01,2013-02-17 16:49:00,
2013-02-17 10:51:00,42.9,23.0,30.26,WSW,257,1.0,10.0,45,0.00,,---,0.00,VWS V14.01,2013-02-17 16:51:00,
2013-02-17 10:53:00,43.1,23.2,30.26,South,172,5.0,10.0,45,0.00,,---,0.00,VWS V14.01,2013-02-17 16:53:00,
2013-02-17 10:54:00,43.3,23.4,30.26,SW,219,4.0,10.0,45,0.00,,---,0.00,VWS V14.01,2013-02-17 16:54:00,
2013-02-17 10:56:00,43.5,23.6,30.26,SSW,206,6.0,10.0,45,0.00,,---,0.00,VWS V14.01,2013-02-17 16:56:00,
2013-02-17 10:58:00,43.6,22.6,30.26,SSW,210,4.0,10.0,43,0.00,,---,0.00,VWS V14.01,2013-02-17 16:58:00,
2013-02-17 10:59:00,43.6,22.6,30.26,SSW,202,3.0,10.0,43,0.00,,---,0.00,VWS V14.01,2013-02-17 16:59:00,
2013-02-17 11:01:00,43.7,22.7,30.26,WSW,250,7.0,11.0,43,0.00,,---,0.00,VWS V14.01,2013-02-17 17:01:00,
2013-02-17 11:03:00,43.7,22.1,30.26,WSW,238,4.0,11.0,42,0.00,,---,0.00,VWS V14.01,2013-02-17 17:03:00,
2013-02-17 11:04:00,43.7,22.1,30.26,SW,236,5.0,11.0,42,0.00,,---,0.00,VWS V14.01,2013-02-17 17:04:00,
2013-02-17 11:05:00,43.6,21.5,30.26,WSW,237,8.0,11.0,41,0.00,,---,0.00,VWS V14.01,2013-02-17 17:05:00,
2013-02-17 11:07:00,43.7,21.6,30.26,WNW,285,2.0,11.0,41,0.00,,---,0.00,VWS V14.01,2013-02-17 17:07:00,
2013-02-17 11:08:00,44.0,23.0,30.26,South,174,4.0,11.0,43,0.00,,---,0.00,VWS V14.01,2013-02-17 17:08:00,
2013-02-17 11:09:00,44.1,23.0,30.26,South,180,6.0,11.0,43,0.00,,---,0.00,VWS V14.01,2013-02-17 17:09:00,
2013-02-17 11:10:00,44.4,22.8,30.26,WSW,257,3.0,11.0,42,0.00,,---,0.00,VWS V14.01,2013-02-17 17:10:00,
2013-02-17 11:12:00,44.4,22.2,30.26,SW,235,8.0,11.0,41,0.00,,---,0.00,VWS V14.01,2013-02-17 17:12:00,
2013-02-17 11:14:00,44.6,22.9,30.26,SSW,211,4.0,11.0,42,0.00,,---,0.00,VWS V14.01,2013-02-17 17:14:00,
2013-02-17 11:16:00,44.9,23.2,30.26,SSW,200,7.0,7.0,42,0.00,,---,0.00,VWS V14.01,2013-02-17 17:16:00,
2013-02-17 11:17:00,45.1,22.8,30.26,WSW,239,6.0,12.0,41,0.00,,---,0.00,VWS V14.01,2013-02-17 17:17:00,
2013-02-17 11:19:00,45.1,22.2,30.25,SW,235,5.0,12.0,40,0.00,,---,0.00,VWS V14.01,2013-02-17 17:19:00,
2013-02-17 11:21:00,45.2,22.9,30.25,SW,221,5.0,12.0,41,0.00,,---,0.00,VWS V14.01,2013-02-17 17:21:00,
2013-02-17 11:22:00,45.3,23.0,30.25,SW,233,5.0,12.0,41,0.00,,---,0.00,VWS V14.01,2013-02-17 17:22:00,
2013-02-17 11:24:00,45.4,23.1,30.25,SSW,207,4.0,12.0,41,0.00,,---,0.00,VWS V14.01,2013-02-17 17:24:00,
2013-02-17 11:26:00,45.6,23.3,30.25,South,183,4.0,12.0,41,0.00,,---,0.00,VWS V14.01,2013-02-17 17:26:00,
2013-02-17 11:27:00,45.8,23.5,30.25,SW,226,5.0,12.0,41,0.00,,---,0.00,VWS V14.01,2013-02-17 17:27:00,
2013-02-17 11:29:00,46.0,23.6,30.25,SSE,152,2.0,12.0,41,0.00,,---,0.00,VWS V14.01,2013-02-17 17:29:00,
2013-02-17 11:31:00,46.2,23.8,30.25,SW,220,6.0,10.0,41,0.00,,---,0.00,VWS V14.01,2013-02-17 17:31:00,
2013-02-17 11:33:00,46.3,23.3,30.25,WSW,243,8.0,10.0,40,0.00,,---,0.00,VWS V14.01,2013-02-17 17:33:00,
2013-02-17 11:34:00,46.5,24.1,30.24,SSW,207,4.0,10.0,41,0.00,,---,0.00,VWS V14.01,2013-02-17 17:34:00,
2013-02-17 11:36:00,46.6,23.6,30.24,SSW,204,4.0,10.0,40,0.00,,---,0.00,VWS V14.01,2013-02-17 17:36:00,
2013-02-17 11:38:00,46.8,23.8,30.24,West,271,3.0,10.0,40,0.00,,---,0.00,VWS V14.01,2013-02-17 17:38:00,
2013-02-17 11:39:00,47.0,24.0,30.24,SW,236,4.0,10.0,40,0.00,,---,0.00,VWS V14.01,2013-02-17 17:39:00,
2013-02-17 11:41:00,47.2,22.9,30.24,WSW,255,7.0,10.0,38,0.00,,---,0.00,VWS V14.01,2013-02-17 17:41:00,
2013-02-17 11:43:00,47.2,22.3,30.24,WSW,244,5.0,10.0,37,0.00,,---,0.00,VWS V14.01,2013-02-17 17:43:00,
2013-02-17 11:44:00,47.3,22.4,30.24,WSW,245,8.0,10.0,37,0.00,,---,0.00,VWS V14.01,2013-02-17 17:44:00,
2013-02-17 11:46:00,47.2,22.3,30.23,WSW,256,7.0,14.0,37,0.00,,---,0.00,VWS V14.01,2013-02-17 17:46:00,
2013-02-17 11:48:00,47.0,22.1,30.23,WSW,250,3.0,14.0,37,0.00,,---,0.00,VWS V14.01,2013-02-17 17:48:00,
2013-02-17 11:49:00,47.1,22.8,30.23,WSW,250,3.0,14.0,38,0.00,,---,0.00,VWS V14.01,2013-02-17 17:49:00,
2013-02-17 11:51:00,47.3,23.0,30.23,SW,227,5.0,14.0,38,0.00,,---,0.00,VWS V14.01,2013-02-17 17:51:00,
2013-02-17 11:53:00,47.7,24.0,30.23,SW,221,3.0,14.0,39,0.00,,---,0.00,VWS V14.01,2013-02-17 17:53:00,
2013-02-17 11:54:00,48.0,23.6,30.23,SW,218,3.0,14.0,38,0.00,,---,0.00,VWS V14.01,2013-02-17 17:54:00,
2013-02-17 11:55:00,48.0,23.6,30.23,WNW,292,4.0,14.0,38,0.00,,---,0.00,VWS V14.01,2013-02-17 17:55:00,
2013-02-17 11:56:00,48.1,23.1,30.23,WSW,241,5.0,14.0,37,0.00,,---,0.00,VWS V14.01,2013-02-17 17:56:00,
2013-02-17 11:58:00,48.0,23.0,30.23,West,263,5.0,14.0,37,0.00,,---,0.00,VWS V14.01,2013-02-17 17:58:00,
2013-02-17 11:59:00,48.1,23.1,30.23,WSW,237,6.0,14.0,37,0.00,,---,0.00,VWS V14.01,2013-02-17 17:59:00,
2013-02-17 12:00:00,48.1,23.1,30.23,West,278,3.0,14.0,37,0.00,,---,0.00,VWS V14.01,2013-02-17 18:00:00,
2013-02-17 12:01:00,48.1,23.1,30.23,SSW,211,7.0,10.0,37,0.00,,---,0.00,VWS V14.01,2013-02-17 18:01:00,
2013-02-17 12:03:00,48.0,23.0,30.22,South,174,4.0,10.0,37,0.00,,---,0.00,VWS V14.01,2013-02-17 18:03:00,
2013-02-17 12:04:00,48.0,23.6,30.22,SSW,193,9.0,10.0,38,0.00,,---,0.00,VWS V14.01,2013-02-17 18:04:00,
2013-02-17 12:05:00,48.1,23.1,30.22,South,179,4.0,10.0,37,0.00,,---,0.00,VWS V14.01,2013-02-17 18:05:00,
2013-02-17 12:06:00,48.1,23.1,30.22,WSW,256,6.0,10.0,37,0.00,,---,0.00,VWS V14.01,2013-02-17 18:06:00,
2013-02-17 12:08:00,48.1,23.1,30.22,WSW,240,6.0,10.0,37,0.00,,---,0.00,VWS V14.01,2013-02-17 18:08:00,
2013-02-17 12:09:00,48.2,23.2,30.22,South,191,12.0,12.0,37,0.00,,---,0.00,VWS V14.01,2013-02-17 18:09:00,
2013-02-17 12:10:00,48.2,23.2,30.22,SW,230,6.0,12.0,37,0.00,,---,0.00,VWS V14.01,2013-02-17 18:10:00,
2013-02-17 12:12:00,48.3,23.3,30.22,SSW,212,7.0,12.0,37,0.00,,---,0.00,VWS V14.01,2013-02-17 18:12:00,
2013-02-17 12:13:00,48.3,23.9,30.21,SW,233,2.0,12.0,38,0.00,,---,0.00,VWS V14.01,2013-02-17 18:13:00,
2013-02-17 12:14:00,48.4,24.0,30.21,SSW,204,8.0,12.0,38,0.00,,---,0.00,VWS V14.01,2013-02-17 18:14:00,
2013-02-17 12:15:00,48.5,23.4,30.21,SW,226,3.0,12.0,37,0.00,,---,0.00,VWS V14.01,2013-02-17 18:15:00,
2013-02-17 12:17:00,48.6,22.9,30.22,SW,225,2.0,8.0,36,0.00,,---,0.00,VWS V14.01,2013-02-17 18:17:00,
2013-02-17 12:18:00,48.7,24.2,30.21,SW,236,7.0,11.0,38,0.00,,---,0.00,VWS V14.01,2013-02-17 18:18:00,
2013-02-17 12:20:00,48.7,23.6,30.21,SSW,212,4.0,11.0,37,0.00,,---,0.00,VWS V14.01,2013-02-17 18:20:00,
2013-02-17 12:22:00,49.1,24.6,30.21,WSW,243,4.0,11.0,38,0.00,,---,0.00,VWS V14.01,2013-02-17 18:22:00,
2013-02-17 12:24:00,49.3,24.1,30.21,WSW,243,4.0,11.0,37,0.00,,---,0.00,VWS V14.01,2013-02-17 18:24:00,
2013-02-17 12:25:00,49.3,23.5,30.21,SSW,209,11.0,11.0,36,0.00,,---,0.00,VWS V14.01,2013-02-17 18:25:00,
2013-02-17 12:27:00,48.9,23.1,30.21,WSW,243,2.0,14.0,36,0.00,,---,0.00,VWS V14.01,2013-02-17 18:27:00,
2013-02-17 12:29:00,48.9,23.1,30.21,SW,216,3.0,14.0,36,0.00,,---,0.00,VWS V14.01,2013-02-17 18:29:00,
2013-02-17 12:30:00,49.0,24.5,30.21,West,262,7.0,14.0,38,0.00,,---,0.00,VWS V14.01,2013-02-17 18:30:00,
2013-02-17 12:32:00,49.2,24.1,30.20,South,181,8.0,8.0,37,0.00,,---,0.00,VWS V14.01,2013-02-17 18:32:00,
2013-02-17 12:34:00,49.3,24.1,30.20,SW,219,3.0,10.0,37,0.00,,---,0.00,VWS V14.01,2013-02-17 18:34:00,
2013-02-17 12:35:00,49.5,24.3,30.20,SSW,210,8.0,10.0,37,0.00,,---,0.00,VWS V14.01,2013-02-17 18:35:00,
2013-02-17 12:37:00,49.7,24.5,30.20,WSW,254,4.0,16.0,37,0.00,,---,0.00,VWS V14.01,2013-02-17 18:37:00,
2013-02-17 12:39:00,49.8,25.2,30.20,SW,230,6.0,16.0,38,0.00,,---,0.00,VWS V14.01,2013-02-17 18:39:00,
2013-02-17 12:40:00,49.9,24.7,30.20,SW,233,5.0,16.0,37,0.00,,---,0.00,VWS V14.01,2013-02-17 18:40:00,
2013-02-17 12:42:00,50.1,24.9,30.19,West,264,6.0,16.0,37,0.00,,---,0.00,VWS V14.01,2013-02-17 18:42:00,
2013-02-17 12:44:00,50.4,25.1,30.19,South,170,7.0,16.0,37,0.00,,---,0.00,VWS V14.01,2013-02-17 18:44:00,
2013-02-17 12:45:00,50.5,25.2,30.19,SW,226,2.0,5.0,37,0.00,,---,0.00,VWS V14.01,2013-02-17 18:45:00,
2013-02-17 12:47:00,50.8,25.5,30.19,WSW,254,5.0,7.0,37,0.00,,---,0.00,VWS V14.01,2013-02-17 18:47:00,
2013-02-17 12:49:00,50.9,24.9,30.19,WNW,296,5.0,8.0,36,0.00,,---,0.00,VWS V14.01,2013-02-17 18:49:00,
2013-02-17 12:50:00,50.9,24.9,30.19,WNW,301,4.0,10.0,36,0.00,,---,0.00,VWS V14.01,2013-02-17 18:50:00,
2013-02-17 12:52:00,51.0,25.7,30.19,SW,230,1.0,10.0,37,0.00,,---,0.00,VWS V14.01,2013-02-17 18:52:00,
2013-02-17 12:54:00,51.2,25.8,30.19,SW,214,6.0,13.0,37,0.00,,---,0.00,VWS V14.01,2013-02-17 18:54:00,
2013-02-17 12:55:00,51.2,25.2,30.19,SW,216,7.0,13.0,36,0.00,,---,0.00,VWS V14.01,2013-02-17 18:55:00,
2013-02-17 12:56:00,51.2,25.2,30.19,SSE,163,5.0,13.0,36,0.00,,---,0.00,VWS V14.01,2013-02-17 18:56:00,
2013-02-17 12:57:00,51.2,25.2,30.19,West,261,6.0,13.0,36,0.00,,---,0.00,VWS V14.01,2013-02-17 18:57:00,
2013-02-17 12:59:00,51.2,25.8,30.19,WSW,240,6.0,13.0,37,0.00,,---,0.00,VWS V14.01,2013-02-17 18:59:00,
2013-02-17 13:01:00,51.2,25.2,30.19,West,266,4.0,9.0,36,0.00,,---,0.00,VWS V14.01,2013-02-17 19:01:00,
2013-02-17 13:02:00,51.2,25.2,30.18,WSW,250,5.0,10.0,36,0.00,,---,0.00,VWS V14.01,2013-02-17 19:02:00,
2013-02-17 13:04:00,51.2,25.2,30.19,SW,226,10.0,11.0,36,0.00,,---,0.00,VWS V14.01,2013-02-17 19:04:00,
2013-02-17 13:06:00,51.2,25.2,30.18,West,278,2.0,11.0,36,0.00,,---,0.00,VWS V14.01,2013-02-17 19:06:00,
2013-02-17 13:07:00,51.3,25.9,30.18,NW,312,4.0,11.0,37,0.00,,---,0.00,VWS V14.01,2013-02-17 19:07:00,
2013-02-17 13:09:00,51.4,25.4,30.18,WNW,292,7.0,11.0,36,0.00,,---,0.00,VWS V14.01,2013-02-17 19:09:00,
2013-02-17 13:11:00,51.3,25.3,30.18,West,273,3.0,11.0,36,0.00,,---,0.00,VWS V14.01,2013-02-17 19:11:00,
2013-02-17 13:12:00,51.5,26.1,30.18,SW,229,7.0,11.0,37,0.00,,---,0.00,VWS V14.01,2013-02-17 19:12:00,
2013-02-17 13:14:00,51.5,25.5,30.18,WSW,256,4.0,11.0,36,0.00,,---,0.00,VWS V14.01,2013-02-17 19:14:00,
2013-02-17 13:16:00,51.6,25.5,30.18,SSW,210,4.0,7.0,36,0.00,,---,0.00,VWS V14.01,2013-02-17 19:16:00,
2013-02-17 13:17:00,51.7,25.6,30.17,South,189,6.0,7.0,36,0.00,,---,0.00,VWS V14.01,2013-02-17 19:17:00,
2013-02-17 13:19:00,52.0,26.5,30.17,SSW,207,4.0,7.0,37,0.00,,---,0.00,VWS V14.01,2013-02-17 19:19:00,
2013-02-17 13:21:00,52.3,26.2,30.17,WSW,247,6.0,9.0,36,0.00,,---,0.00,VWS V14.01,2013-02-17 19:21:00,
2013-02-17 13:23:00,52.5,26.3,30.17,SW,224,5.0,12.0,36,0.00,,---,0.00,VWS V14.01,2013-02-17 19:23:00,
2013-02-17 13:24:00,52.6,26.4,30.17,South,175,3.0,12.0,36,0.00,,---,0.00,VWS V14.01,2013-02-17 19:24:00,
2013-02-17 13:26:00,52.9,26.7,30.17,SW,235,4.0,12.0,36,0.00,,---,0.00,VWS V14.01,2013-02-17 19:26:00,
2013-02-17 13:28:00,52.9,26.0,30.17,SSW,211,7.0,12.0,35,0.00,,---,0.00,VWS V14.01,2013-02-17 19:28:00,
2013-02-17 13:30:00,52.6,25.8,30.17,WSW,246,3.0,12.0,35,0.00,,---,0.00,VWS V14.01,2013-02-17 19:30:00,
2013-02-17 13:31:00,52.5,25.7,30.16,WSW,251,1.0,5.0,35,0.00,,---,0.00,VWS V14.01,2013-02-17 19:31:00,
2013-02-17 13:33:00,52.6,27.1,30.16,SSW,207,2.0,5.0,37,0.00,,---,0.00,VWS V14.01,2013-02-17 19:33:00,
2013-02-17 13:35:00,52.9,27.4,30.16,SW,214,4.0,7.0,37,0.00,,---,0.00,VWS V14.01,2013-02-17 19:35:00,
2013-02-17 13:36:00,53.0,26.8,30.16,SW,233,3.0,14.0,36,0.00,,---,0.00,VWS V14.01,2013-02-17 19:36:00,
2013-02-17 13:38:00,53.0,26.1,30.16,SW,218,5.0,14.0,35,0.00,,---,0.00,VWS V14.01,2013-02-17 19:38:00,
2013-02-17 13:40:00,52.9,26.0,30.16,SSW,211,7.0,14.0,35,0.00,,---,0.00,VWS V14.01,2013-02-17 19:40:00,
2013-02-17 13:41:00,52.9,26.7,30.16,SW,231,2.0,14.0,36,0.00,,---,0.00,VWS V14.01,2013-02-17 19:41:00,
2013-02-17 13:43:00,52.9,26.7,30.16,SSE,152,3.0,14.0,36,0.00,,---,0.00,VWS V14.01,2013-02-17 19:43:00,
2013-02-17 13:45:00,53.2,27.0,30.16,WSW,238,8.0,14.0,36,0.00,,---,0.00,VWS V14.01,2013-02-17 19:45:00,
2013-02-17 13:46:00,53.2,26.3,30.16,WSW,247,6.0,10.0,35,0.00,,---,0.00,VWS V14.01,2013-02-17 19:46:00,
2013-02-17 13:48:00,53.0,26.8,30.16,South,172,6.0,10.0,36,0.00,,---,0.00,VWS V14.01,2013-02-17 19:48:00,
2013-02-17 13:50:00,53.1,27.5,30.16,WSW,247,6.0,11.0,37,0.00,,---,0.00,VWS V14.01,2013-02-17 19:50:00,
2013-02-17 13:51:00,53.1,26.9,30.16,SW,233,9.0,11.0,36,0.00,,---,0.00,VWS V14.01,2013-02-17 19:51:00,
2013-02-17 13:52:00,53.0,26.8,30.16,WSW,250,4.0,11.0,36,0.00,,---,0.00,VWS V14.01,2013-02-17 19:52:00,
2013-02-17 13:53:00,52.9,26.7,30.16,WSW,245,5.0,11.0,36,0.00,,---,0.00,VWS V14.01,2013-02-17 19:53:00,
2013-02-17 13:55:00,53.0,27.4,30.16,SW,231,3.0,11.0,37,0.00,,---,0.00,VWS V14.01,2013-02-17 19:55:00,
2013-02-17 13:56:00,53.2,27.0,30.15,WSW,253,7.0,11.0,36,0.00,,---,0.00,VWS V14.01,2013-02-17 19:56:00,
2013-02-17 13:57:00,53.1,26.9,30.15,WSW,240,3.0,11.0,36,0.00,,---,0.00,VWS V14.01,2013-02-17 19:57:00,
2013-02-17 13:58:00,53.2,27.0,30.15,WSW,240,5.0,11.0,36,0.00,,---,0.00,VWS V14.01,2013-02-17 19:58:00,
2013-02-17 14:00:00,53.2,26.3,30.15,SW,235,2.0,2.0,35,0.00,,---,0.00,VWS V14.01,2013-02-17 20:00:00,
2013-02-17 14:02:00,53.2,27.0,30.15,South,191,4.0,6.0,36,0.00,,---,0.00,VWS V14.01,2013-02-17 20:02:00,
2013-02-17 14:03:00,53.4,27.8,30.15,SSW,209,3.0,6.0,37,0.00,,---,0.00,VWS V14.01,2013-02-17 20:03:00,
2013-02-17 14:05:00,53.6,27.3,30.15,SSW,202,6.0,7.0,36,0.00,,---,0.00,VWS V14.01,2013-02-17 20:05:00,
2013-02-17 14:07:00,53.7,26.7,30.15,SSE,150,3.0,9.0,35,0.00,,---,0.00,VWS V14.01,2013-02-17 20:07:00,
2013-02-17 14:08:00,53.9,27.6,30.15,SW,221,4.0,9.0,36,0.00,,---,0.00,VWS V14.01,2013-02-17 20:08:00,
2013-02-17 14:10:00,54.1,27.1,30.15,SSW,210,3.0,9.0,35,0.00,,---,0.00,VWS V14.01,2013-02-17 20:10:00,
2013-02-17 14:12:00,54.1,27.8,30.15,WSW,247,3.0,10.0,36,0.00,,---,0.00,VWS V14.01,2013-02-17 20:12:00,
2013-02-17 14:13:00,54.1,27.1,30.15,West,264,4.0,10.0,35,0.00,,---,0.00,VWS V14.01,2013-02-17 20:13:00,
2013-02-17 14:15:00,54.0,27.0,30.14,WSW,243,7.0,7.0,35,0.00,,---,0.00,VWS V14.01,2013-02-17 20:15:00,
2013-02-17 14:17:00,53.9,27.6,30.14,SW,230,14.0,14.0,36,0.00,,---,0.00,VWS V14.01,2013-02-17 20:17:00,
2013-02-17 14:18:00,53.9,26.9,30.14,WSW,245,7.0,14.0,35,0.00,,---,0.00,VWS V14.01,2013-02-17 20:18:00,
2013-02-17 14:20:00,53.9,27.6,30.14,SW,219,11.0,14.0,36,0.00,,---,0.00,VWS V14.01,2013-02-17 20:20:00,
2013-02-17 14:22:00,54.0,27.0,30.14,WSW,257,2.0,14.0,35,0.00,,---,0.00,VWS V14.01,2013-02-17 20:22:00,
2013-02-17 14:24:00,54.1,27.8,30.14,SSW,210,5.0,14.0,36,0.00,,---,0.00,VWS V14.01,2013-02-17 20:24:00,
2013-02-17 14:25:00,54.3,27.9,30.14,WNW,283,7.0,14.0,36,0.00,,---,0.00,VWS V14.01,2013-02-17 20:25:00,
2013-02-17 14:27:00,54.5,27.4,30.14,SW,231,2.0,14.0,35,0.00,,---,0.00,VWS V14.01,2013-02-17 20:27:00,
2013-02-17 14:29:00,54.4,27.3,30.14,SW,219,3.0,14.0,35,0.00,,---,0.00,VWS V14.01,2013-02-17 20:29:00,
2013-02-17 14:31:00,54.5,27.4,30.14,WSW,245,5.0,5.0,35,0.00,,---,0.00,VWS V14.01,2013-02-17 20:31:00,
2013-02-17 14:32:00,54.5,28.1,30.14,WNW,290,4.0,7.0,36,0.00,,---,0.00,VWS V14.01,2013-02-17 20:32:00,
2013-02-17 14:34:00,54.5,27.4,30.13,WSW,248,4.0,7.0,35,0.00,,---,0.00,VWS V14.01,2013-02-17 20:34:00,
2013-02-17 14:36:00,54.6,28.2,30.13,SSW,210,6.0,9.0,36,0.00,,---,0.00,VWS V14.01,2013-02-17 20:36:00,
2013-02-17 14:37:00,54.7,28.3,30.14,South,190,5.0,10.0,36,0.00,,---,0.00,VWS V14.01,2013-02-17 20:37:00,
2013-02-17 14:39:00,54.8,27.7,30.14,SW,233,7.0,10.0,35,0.00,,---,0.00,VWS V14.01,2013-02-17 20:39:00,
2013-02-17 14:41:00,54.8,27.7,30.14,SW,228,8.0,10.0,35,0.00,,---,0.00,VWS V14.01,2013-02-17 20:41:00,
2013-02-17 14:42:00,54.8,27.7,30.14,NW,307,2.0,10.0,35,0.00,,---,0.00,VWS V14.01,2013-02-17 20:42:00,
2013-02-17 14:43:00,54.8,27.7,30.14,WSW,255,2.0,10.0,35,0.00,,---,0.00,VWS V14.01,2013-02-17 20:43:00,
2013-02-17 14:44:00,54.9,27.8,30.14,SW,228,5.0,10.0,35,0.00,,---,0.00,VWS V14.01,2013-02-17 20:44:00,
2013-02-17 14:46:00,54.8,27.0,30.14,WSW,257,6.0,10.0,34,0.00,,---,0.00,VWS V14.01,2013-02-17 20:46:00,
2013-02-17 14:48:00,54.7,27.6,30.14,SSW,198,6.0,13.0,35,0.00,,---,0.00,VWS V14.01,2013-02-17 20:48:00,
2013-02-17 14:49:00,54.7,27.6,30.14,South,185,6.0,13.0,35,0.00,,---,0.00,VWS V14.01,2013-02-17 20:49:00,
2013-02-17 14:51:00,54.9,28.5,30.13,WSW,238,2.0,13.0,36,0.00,,---,0.00,VWS V14.01,2013-02-17 20:51:00,
2013-02-17 14:52:00,55.0,27.9,30.13,SW,214,6.0,13.0,35,0.00,,---,0.00,VWS V14.01,2013-02-17 20:52:00,
2013-02-17 14:53:00,55.1,28.6,30.13,South,184,6.0,13.0,36,0.00,,---,0.00,VWS V14.01,2013-02-17 20:53:00,
2013-02-17 14:54:00,55.3,28.8,30.13,West,263,2.0,13.0,36,0.00,,---,0.00,VWS V14.01,2013-02-17 20:54:00,
2013-02-17 14:56:00,55.4,28.2,30.13,WSW,240,4.0,13.0,35,0.00,,---,0.00,VWS V14.01,2013-02-17 20:56:00,
2013-02-17 14:57:00,55.5,29.0,30.13,West,261,3.0,13.0,36,0.00,,---,0.00,VWS V14.01,2013-02-17 20:57:00,
2013-02-17 14:58:00,55.5,28.3,30.13,West,271,4.0,13.0,35,0.00,,---,0.00,VWS V14.01,2013-02-17 20:58:00,
2013-02-17 14:59:00,55.5,28.3,30.13,WSW,250,3.0,13.0,35,0.00,,---,0.00,VWS V14.01,2013-02-17 20:59:00,
2013-02-17 15:01:00,55.5,28.3,30.13,SW,226,3.0,11.0,35,0.00,,---,0.00,VWS V14.01,2013-02-17 21:01:00,
2013-02-17 15:03:00,55.5,28.3,30.13,WSW,245,3.0,11.0,35,0.00,,---,0.00,VWS V14.01,2013-02-17 21:03:00,
2013-02-17 15:05:00,55.7,28.5,30.13,South,187,2.0,11.0,35,0.00,,---,0.00,VWS V14.01,2013-02-17 21:05:00,
2013-02-17 15:06:00,55.9,28.7,30.13,SW,214,2.0,11.0,35,0.00,,---,0.00,VWS V14.01,2013-02-17 21:06:00,
2013-02-17 15:08:00,56.0,28.0,30.13,SSW,211,4.0,11.0,34,0.00,,---,0.00,VWS V14.01,2013-02-17 21:08:00,
2013-02-17 15:10:00,56.1,28.8,30.13,SW,219,2.0,11.0,35,0.00,,---,0.00,VWS V14.01,2013-02-17 21:10:00,
2013-02-17 15:11:00,56.2,28.9,30.12,SSE,165,4.0,11.0,35,0.00,,---,0.00,VWS V14.01,2013-02-17 21:11:00,
2013-02-17 15:13:00,56.3,28.3,30.12,SSW,202,11.0,11.0,34,0.00,,---,0.00,VWS V14.01,2013-02-17 21:13:00,
2013-02-17 15:14:00,56.4,29.1,30.13,SW,230,2.0,11.0,35,0.00,,---,0.00,VWS V14.01,2013-02-17 21:14:00,
2013-02-17 15:15:00,56.5,29.2,30.13,South,187,2.0,11.0,35,0.00,,---,0.00,VWS V14.01,2013-02-17 21:15:00,
2013-02-17 15:16:00,56.5,28.5,30.12,SSW,209,4.0,9.0,34,0.00,,---,0.00,VWS V14.01,2013-02-17 21:16:00,
2013-02-17 15:18:00,56.5,28.5,30.12,SW,221,2.0,9.0,34,0.00,,---,0.00,VWS V14.01,2013-02-17 21:18:00,
2013-02-17 15:19:00,56.5,28.5,30.12,SSW,204,5.0,9.0,34,0.00,,---,0.00,VWS V14.01,2013-02-17 21:19:00,
2013-02-17 15:20:00,56.5,28.5,30.12,SW,226,3.0,9.0,34,0.00,,---,0.00,VWS V14.01,2013-02-17 21:20:00,
2013-02-17 15:22:00,56.5,28.5,30.12,SW,216,2.0,9.0,34,0.00,,---,0.00,VWS V14.01,2013-02-17 21:22:00,
2013-02-17 15:23:00,56.5,29.2,30.12,SSW,213,3.0,9.0,35,0.00,,---,0.00,VWS V14.01,2013-02-17 21:23:00,
2013-02-17 15:24:00,56.6,29.3,30.12,SSW,203,2.0,9.0,35,0.00,,---,0.00,VWS V14.01,2013-02-17 21:24:00,
2013-02-17 15:25:00,56.7,29.4,30.12,SSW,194,1.0,9.0,35,0.00,,---,0.00,VWS V14.01,2013-02-17 21:25:00,
2013-02-17 15:27:00,56.9,29.5,30.12,SSW,198,5.0,9.0,35,0.00,,---,0.00,VWS V14.01,2013-02-17 21:27:00,
2013-02-17 15:28:00,56.9,28.1,30.12,WSW,237,7.0,11.0,33,0.00,,---,0.00,VWS V14.01,2013-02-17 21:28:00,
2013-02-17 15:29:00,56.8,28.8,30.12,South,189,4.0,11.0,34,0.00,,---,0.00,VWS V14.01,2013-02-17 21:29:00,
2013-02-17 15:30:00,56.8,28.8,30.12,SSW,199,11.0,11.0,34,0.00,,---,0.00,VWS V14.01,2013-02-17 21:30:00,
2013-02-17 15:32:00,56.6,28.6,30.12,SSE,161,5.0,12.0,34,0.00,,---,0.00,VWS V14.01,2013-02-17 21:32:00,
2013-02-17 15:33:00,56.5,28.5,30.12,SSW,202,7.0,12.0,34,0.00,,---,0.00,VWS V14.01,2013-02-17 21:33:00,
2013-02-17 15:34:00,56.5,28.5,30.12,SW,231,3.0,12.0,34,0.00,,---,0.00,VWS V14.01,2013-02-17 21:34:00,
2013-02-17 15:35:00,56.4,28.4,30.11,SSW,195,8.0,13.0,34,0.00,,---,0.00,VWS V14.01,2013-02-17 21:35:00,
2013-02-17 15:38:00,56.3,28.3,30.11,South,177,4.0,13.0,34,0.00,,---,0.00,VWS V14.01,2013-02-17 21:38:00,
2013-02-17 15:39:00,56.3,28.3,30.11,SSW,212,6.0,13.0,34,0.00,,---,0.00,VWS V14.01,2013-02-17 21:39:00,
2013-02-17 15:40:00,56.2,28.2,30.11,SW,233,3.0,13.0,34,0.00,,---,0.00,VWS V14.01,2013-02-17 21:40:00,
2013-02-17 15:43:00,56.2,28.2,30.11,SSE,160,6.0,13.0,34,0.00,,---,0.00,VWS V14.01,2013-02-17 21:43:00,
2013-02-17 15:44:00,56.2,28.2,30.11,SW,221,6.0,13.0,34,0.00,,---,0.00,VWS V14.01,2013-02-17 21:44:00,
2013-02-17 15:45:00,56.3,29.0,30.11,SSW,195,7.0,7.0,35,0.00,,---,0.00,VWS V14.01,2013-02-17 21:45:00,
2013-02-17 15:48:00,56.4,29.1,30.11,South,179,6.0,10.0,35,0.00,,---,0.00,VWS V14.01,2013-02-17 21:48:00,
2013-02-17 15:49:00,56.3,29.0,30.11,SW,222,5.0,12.0,35,0.00,,---,0.00,VWS V14.01,2013-02-17 21:49:00,
2013-02-17 15:50:00,56.3,29.0,30.11,South,180,6.0,12.0,35,0.00,,---,0.00,VWS V14.01,2013-02-17 21:50:00,
2013-02-17 15:53:00,56.4,29.1,30.11,SW,218,4.0,12.0,35,0.00,,---,0.00,VWS V14.01,2013-02-17 21:53:00,
2013-02-17 15:54:00,56.4,28.4,30.11,SW,214,6.0,12.0,34,0.00,,---,0.00,VWS V14.01,2013-02-17 21:54:00,
2013-02-17 15:55:00,56.4,29.1,30.11,SW,217,1.0,12.0,35,0.00,,---,0.00,VWS V14.01,2013-02-17 21:55:00,
2013-02-17 15:58:00,56.5,28.5,30.11,SSW,209,4.0,12.0,34,0.00,,---,0.00,VWS V14.01,2013-02-17 21:58:00,
2013-02-17 15:59:00,56.6,28.6,30.11,WSW,247,9.0,12.0,34,0.00,,---,0.00,VWS V14.01,2013-02-17 21:59:00,
2013-02-17 16:00:00,56.5,28.5,30.11,SSW,199,4.0,7.0,34,0.00,,---,0.00,VWS V14.01,2013-02-17 22:00:00,
2013-02-17 16:03:00,56.5,29.2,30.11,SSW,207,6.0,11.0,35,0.00,,---,0.00,VWS V14.01,2013-02-17 22:03:00,
2013-02-17 16:04:00,56.5,28.5,30.11,SSW,209,8.0,11.0,34,0.00,,---,0.00,VWS V14.01,2013-02-17 22:04:00,
2013-02-17 16:05:00,56.6,29.3,30.11,SW,233,3.0,11.0,35,0.00,,---,0.00,VWS V14.01,2013-02-17 22:05:00,
2013-02-17 16:08:00,56.6,29.3,30.11,SSW,206,8.0,12.0,35,0.00,,---,0.00,VWS V14.01,2013-02-17 22:08:00,
2013-02-17 16:09:00,56.6,29.3,30.11,SSW,194,6.0,12.0,35,0.00,,---,0.00,VWS V14.01,2013-02-17 22:09:00,
2013-02-17 16:10:00,56.6,29.3,30.11,SW,217,5.0,12.0,35,0.00,,---,0.00,VWS V14.01,2013-02-17 22:10:00,
2013-02-17 16:13:00,56.5,29.2,30.11,SW,236,6.0,12.0,35,0.00,,---,0.00,VWS V14.01,2013-02-17 22:13:00,
2013-02-17 16:14:00,56.5,29.2,30.11,SW,235,5.0,12.0,35,0.00,,---,0.00,VWS V14.01,2013-02-17 22:14:00,
2013-02-17 16:15:00,56.4,29.1,30.11,SW,235,5.0,12.0,35,0.00,,---,0.00,VWS V14.01,2013-02-17 22:15:00,
2013-02-17 16:16:00,56.4,29.1,30.11,SW,216,6.0,8.0,35,0.00,,---,0.00,VWS V14.01,2013-02-17 22:16:00,
2013-02-17 16:18:00,56.4,29.1,30.11,West,263,10.0,12.0,35,0.00,,---,0.00,VWS V14.01,2013-02-17 22:18:00,
2013-02-17 16:19:00,56.4,29.1,30.11,SSW,213,5.0,12.0,35,0.00,,---,0.00,VWS V14.01,2013-02-17 22:19:00,
2013-02-17 16:20:00,56.3,29.0,30.11,SW,225,7.0,12.0,35,0.00,,---,0.00,VWS V14.01,2013-02-17 22:20:00,
2013-02-17 16:21:00,56.3,29.0,30.11,SW,214,7.0,12.0,35,0.00,,---,0.00,VWS V14.01,2013-02-17 22:21:00,
2013-02-17 16:23:00,56.4,29.1,30.10,South,169,3.0,17.0,35,0.00,,---,0.00,VWS V14.01,2013-02-17 22:23:00,
2013-02-17 16:24:00,56.4,29.8,30.10,SW,218,2.0,17.0,36,0.00,,---,0.00,VWS V14.01,2013-02-17 22:24:00,
2013-02-17 16:25:00,56.4,29.8,30.10,SSW,202,9.0,17.0,36,0.00,,---,0.00,VWS V14.01,2013-02-17 22:25:00,
2013-02-17 16:26:00,56.4,29.8,30.10,South,177,7.0,17.0,36,0.00,,---,0.00,VWS V14.01,2013-02-17 22:26:00,
2013-02-17 16:28:00,56.5,29.2,30.10,SSW,213,7.0,17.0,35,0.00,,---,0.00,VWS V14.01,2013-02-17 22:28:00,
2013-02-17 16:29:00,56.5,29.2,30.10,SSE,162,3.0,17.0,35,0.00,,---,0.00,VWS V14.01,2013-02-17 22:29:00,
2013-02-17 16:30:00,56.5,29.9,30.10,South,170,2.0,4.0,36,0.00,,---,0.00,VWS V14.01,2013-02-17 22:30:00,
2013-02-17 16:31:00,56.5,29.9,30.10,SW,233,2.0,4.0,36,0.00,,---,0.00,VWS V14.01,2013-02-17 22:31:00,
2013-02-17 16:33:00,56.7,30.1,30.10,SSW,205,4.0,6.0,36,0.00,,---,0.00,VWS V14.01,2013-02-17 22:33:00,
2013-02-17 16:34:00,56.8,30.1,30.10,WSW,237,4.0,7.0,36,0.00,,---,0.00,VWS V14.01,2013-02-17 22:34:00,
2013-02-17 16:35:00,56.7,29.4,30.10,SSW,212,8.0,10.0,35,0.00,,---,0.00,VWS V14.01,2013-02-17 22:35:00,
2013-02-17 16:36:00,56.7,29.4,30.10,SSW,198,10.0,14.0,35,0.00,,---,0.00,VWS V14.01,2013-02-17 22:36:00,
2013-02-17 16:38:00,56.6,29.3,30.10,South,183,8.0,14.0,35,0.00,,---,0.00,VWS V14.01,2013-02-17 22:38:00,
2013-02-17 16:39:00,56.5,29.2,30.10,SW,220,8.0,14.0,35,0.00,,---,0.00,VWS V14.01,2013-02-17 22:39:00,
2013-02-17 16:40:00,56.5,29.2,30.10,SSW,210,3.0,14.0,35,0.00,,---,0.00,VWS V14.01,2013-02-17 22:40:00,
2013-02-17 16:41:00,56.5,29.2,30.10,SW,222,3.0,14.0,35,0.00,,---,0.00,VWS V14.01,2013-02-17 22:41:00,
2013-02-17 16:43:00,56.5,29.2,30.10,SSW,205,3.0,14.0,35,0.00,,---,0.00,VWS V14.01,2013-02-17 22:43:00,
2013-02-17 16:44:00,56.5,29.2,30.10,SSE,153,2.0,14.0,35,0.00,,---,0.00,VWS V14.01,2013-02-17 22:44:00,
2013-02-17 16:45:00,56.5,29.2,30.10,SW,218,1.0,1.0,35,0.00,,---,0.00,VWS V14.01,2013-02-17 22:45:00,
2013-02-17 16:46:00,56.5,29.2,30.10,SW,228,2.0,2.0,35,0.00,,---,0.00,VWS V14.01,2013-02-17 22:46:00,
2013-02-17 16:48:00,56.5,29.2,30.10,South,183,2.0,4.0,35,0.00,,---,0.00,VWS V14.01,2013-02-17 22:48:00,
2013-02-17 16:49:00,56.6,29.3,30.10,SSW,209,3.0,4.0,35,0.00,,---,0.00,VWS V14.01,2013-02-17 22:49:00,
2013-02-17 16:50:00,56.5,29.2,30.10,SSW,197,1.0,5.0,35,0.00,,---,0.00,VWS V14.01,2013-02-17 22:50:00,
2013-02-17 16:51:00,56.5,29.2,30.10,SW,216,2.0,5.0,35,0.00,,---,0.00,VWS V14.01,2013-02-17 22:51:00,
2013-02-17 16:53:00,56.5,29.2,30.10,SSW,207,8.0,8.0,35,0.00,,---,0.00,VWS V14.01,2013-02-17 22:53:00,
2013-02-17 16:55:00,56.4,28.4,30.10,SSW,209,3.0,8.0,34,0.00,,---,0.00,VWS V14.01,2013-02-17 22:55:00,
2013-02-17 16:56:00,56.3,29.0,30.10,South,176,4.0,8.0,35,0.00,,---,0.00,VWS V14.01,2013-02-17 22:56:00,
2013-02-17 16:58:00,56.2,28.9,30.10,SW,233,4.0,8.0,35,0.00,,---,0.00,VWS V14.01,2013-02-17 22:58:00,
2013-02-17 17:00:00,56.2,28.9,30.10,SW,216,4.0,9.0,35,0.00,,---,0.00,VWS V14.01,2013-02-17 23:00:00,
2013-02-17 17:01:00,56.1,28.8,30.10,South,175,4.0,7.0,35,0.00,,---,0.00,VWS V14.01,2013-02-17 23:01:00,
2013-02-17 17:04:00,56.1,28.8,30.10,SSW,199,7.0,9.0,35,0.00,,---,0.00,VWS V14.01,2013-02-17 23:04:00,
2013-02-17 17:05:00,56.1,28.8,30.10,South,176,5.0,9.0,35,0.00,,---,0.00,VWS V14.01,2013-02-17 23:05:00,
2013-02-17 17:06:00,56.1,29.5,30.10,SW,216,4.0,9.0,36,0.00,,---,0.00,VWS V14.01,2013-02-17 23:06:00,
2013-02-17 17:07:00,56.1,28.8,30.10,SW,233,2.0,9.0,35,0.00,,---,0.00,VWS V14.01,2013-02-17 23:07:00,
2013-02-17 17:09:00,56.1,29.5,30.10,SSW,194,4.0,9.0,36,0.00,,---,0.00,VWS V14.01,2013-02-17 23:09:00,
2013-02-17 17:10:00,56.0,29.4,30.10,South,172,5.0,9.0,36,0.00,,---,0.00,VWS V14.01,2013-02-17 23:10:00,
2013-02-17 17:11:00,56.0,29.4,30.10,SW,229,3.0,9.0,36,0.00,,---,0.00,VWS V14.01,2013-02-17 23:11:00,
2013-02-17 17:12:00,56.0,29.4,30.10,SW,219,6.0,9.0,36,0.00,,---,0.00,VWS V14.01,2013-02-17 23:12:00,
2013-02-17 17:14:00,55.9,29.4,30.10,South,188,2.0,10.0,36,0.00,,---,0.00,VWS V14.01,2013-02-17 23:14:00,
2013-02-17 17:15:00,55.8,29.3,30.10,SSW,207,6.0,10.0,36,0.00,,---,0.00,VWS V14.01,2013-02-17 23:15:00,
2013-02-17 17:16:00,55.8,29.3,30.10,SSW,211,3.0,4.0,36,0.00,,---,0.00,VWS V14.01,2013-02-17 23:16:00,
2013-02-17 17:17:00,55.8,29.3,30.10,SW,216,3.0,6.0,36,0.00,,---,0.00,VWS V14.01,2013-02-17 23:17:00,
2013-02-17 17:19:00,55.8,29.9,30.10,SSW,212,3.0,6.0,37,0.00,,---,0.00,VWS V14.01,2013-02-17 23:19:00,
2013-02-17 17:20:00,55.7,29.2,30.10,SW,233,2.0,9.0,36,0.00,,---,0.00,VWS V14.01,2013-02-17 23:20:00,
2013-02-17 17:21:00,55.7,29.9,30.10,SW,225,5.0,9.0,37,0.00,,---,0.00,VWS V14.01,2013-02-17 23:21:00,
2013-02-17 17:22:00,55.7,29.9,30.10,SW,224,3.0,9.0,37,0.00,,---,0.00,VWS V14.01,2013-02-17 23:22:00,
2013-02-17 17:24:00,55.6,29.1,30.10,SSW,210,3.0,9.0,36,0.00,,---,0.00,VWS V14.01,2013-02-17 23:24:00,
2013-02-17 17:25:00,55.5,29.7,30.10,SW,231,2.0,9.0,37,0.00,,---,0.00,VWS V14.01,2013-02-17 23:25:00,
2013-02-17 17:26:00,55.5,29.7,30.10,SSW,207,4.0,9.0,37,0.00,,---,0.00,VWS V14.01,2013-02-17 23:26:00,
2013-02-17 17:27:00,55.4,29.6,30.10,SSW,204,2.0,9.0,37,0.00,,---,0.00,VWS V14.01,2013-02-17 23:27:00,
2013-02-17 17:29:00,55.3,29.5,30.10,SSW,210,2.0,9.0,37,0.00,,---,0.00,VWS V14.01,2013-02-17 23:29:00,
2013-02-17 17:30:00,55.2,29.4,30.10,South,187,1.0,9.0,37,0.00,,---,0.00,VWS V14.01,2013-02-17 23:30:00,
2013-02-17 17:31:00,55.1,29.3,30.10,WSW,237,4.0,7.0,37,0.00,,---,0.00,VWS V14.01,2013-02-17 23:31:00,
2013-02-17 17:32:00,55.0,29.2,30.10,SW,219,3.0,7.0,37,0.00,,---,0.00,VWS V14.01,2013-02-17 23:32:00,
2013-02-17 17:34:00,54.8,29.7,30.10,SW,217,3.0,7.0,38,0.00,,---,0.00,VWS V14.01,2013-02-17 23:34:00,
2013-02-17 17:35:00,54.6,29.5,30.10,SW,230,2.0,7.0,38,0.00,,---,0.00,VWS V14.01,2013-02-17 23:35:00,
2013-02-17 17:36:00,54.5,29.4,30.10,SSW,210,3.0,7.0,38,0.00,,---,0.00,VWS V14.01,2013-02-17 23:36:00,
2013-02-17 17:37:00,54.4,29.3,30.10,SSW,198,5.0,7.0,38,0.00,,---,0.00,VWS V14.01,2013-02-17 23:37:00,
2013-02-17 17:39:00,54.2,29.8,30.10,SW,221,2.0,7.0,39,0.00,,---,0.00,VWS V14.01,2013-02-17 23:39:00,
2013-02-17 17:40:00,54.1,29.7,30.10,SW,228,2.0,7.0,39,0.00,,---,0.00,VWS V14.01,2013-02-17 23:40:00,
2013-02-17 17:41:00,53.9,29.5,30.10,SSW,211,3.0,7.0,39,0.00,,---,0.00,VWS V14.01,2013-02-17 23:41:00,
2013-02-17 17:42:00,53.8,29.4,30.10,SW,220,4.0,7.0,39,0.00,,---,0.00,VWS V14.01,2013-02-17 23:42:00,
2013-02-17 17:44:00,53.7,29.4,30.10,SSW,203,1.0,9.0,39,0.00,,---,0.00,VWS V14.01,2013-02-17 23:44:00,
2013-02-17 17:45:00,53.6,29.3,30.10,South,178,4.0,5.0,39,0.00,,---,0.00,VWS V14.01,2013-02-17 23:45:00,
2013-02-17 17:46:00,53.5,29.8,30.10,SW,223,2.0,5.0,40,0.00,,---,0.00,VWS V14.01,2013-02-17 23:46:00,
2013-02-17 17:47:00,53.4,29.7,30.10,SW,219,2.0,5.0,40,0.00,,---,0.00,VWS V14.01,2013-02-17 23:47:00,
2013-02-17 17:49:00,53.2,29.5,30.10,SW,226,2.0,5.0,40,0.00,,---,0.00,VWS V14.01,2013-02-17 23:49:00,
2013-02-17 17:50:00,53.1,29.4,30.10,South,188,2.0,5.0,40,0.00,,---,0.00,VWS V14.01,2013-02-17 23:50:00,
2013-02-17 17:51:00,53.0,30.0,30.10,SW,220,2.0,5.0,41,0.00,,---,0.00,VWS V14.01,2013-02-17 23:51:00,
2013-02-17 17:52:00,52.9,29.9,30.10,SW,214,2.0,5.0,41,0.00,,---,0.00,VWS V14.01,2013-02-17 23:52:00,
2013-02-17 17:54:00,52.7,29.7,30.10,SW,223,4.0,7.0,41,0.00,,---,0.00,VWS V14.01,2013-02-17 23:54:00,
2013-02-17 17:55:00,52.7,29.1,30.10,South,190,3.0,7.0,40,0.00,,---,0.00,VWS V14.01,2013-02-17 23:55:00,
2013-02-17 17:57:00,52.6,29.0,30.11,SSW,198,2.0,7.0,40,0.00,,---,0.00,VWS V14.01,2013-02-17 23:57:00,
2013-02-17 17:59:00,52.4,29.4,30.11,SW,214,1.0,7.0,41,0.00,,---,0.00,VWS V14.01,2013-02-17 23:59:00,
2013-02-17 18:00:00,52.4,29.4,30.11,SW,216,2.0,3.0,41,0.00,,---,0.00,VWS V14.01,2013-02-18 00:00:00,
2013-02-17 18:02:00,52.3,29.3,30.11,SW,225,1.0,6.0,41,0.00,,---,0.00,VWS V14.01,2013-02-18 00:02:00,
2013-02-17 18:05:00,52.0,29.0,30.11,SSW,210,2.0,7.0,41,0.00,,---,0.00,VWS V14.01,2013-02-18 00:05:00,
2013-02-17 18:07:00,51.9,29.0,30.11,SW,216,2.0,7.0,41,0.00,,---,0.00,VWS V14.01,2013-02-18 00:07:00,
2013-02-17 18:10:00,51.7,28.8,30.11,SSW,210,4.0,7.0,41,0.00,,---,0.00,VWS V14.01,2013-02-18 00:10:00,
2013-02-17 18:12:00,51.6,28.7,30.11,SSW,211,3.0,7.0,41,0.00,,---,0.00,VWS V14.01,2013-02-18 00:12:00,
2013-02-17 18:15:00,51.4,28.5,30.11,South,190,2.0,7.0,41,0.00,,---,0.00,VWS V14.01,2013-02-18 00:15:00,
2013-02-17 18:17:00,51.3,28.4,30.11,SW,214,2.0,6.0,41,0.00,,---,0.00,VWS V14.01,2013-02-18 00:17:00,
2013-02-17 18:18:00,51.2,28.9,30.11,SW,217,3.0,6.0,42,0.00,,---,0.00,VWS V14.01,2013-02-18 00:18:00,
2013-02-17 18:20:00,51.1,28.8,30.11,SSW,211,3.0,6.0,42,0.00,,---,0.00,VWS V14.01,2013-02-18 00:20:00,
2013-02-17 18:21:00,51.1,28.8,30.11,SSW,212,2.0,6.0,42,0.00,,---,0.00,VWS V14.01,2013-02-18 00:21:00,
2013-02-17 18:22:00,51.0,28.7,30.11,SW,214,2.0,6.0,42,0.00,,---,0.00,VWS V14.01,2013-02-18 00:22:00,
2013-02-17 18:23:00,51.0,28.7,30.11,SW,217,2.0,6.0,42,0.00,,---,0.00,VWS V14.01,2013-02-18 00:23:00,
2013-02-17 18:25:00,50.8,28.5,30.11,WSW,243,2.0,6.0,42,0.00,,---,0.00,VWS V14.01,2013-02-18 00:25:00,
2013-02-17 18:26:00,50.8,29.1,30.11,SSW,210,1.0,6.0,43,0.00,,---,0.00,VWS V14.01,2013-02-18 00:26:00,
2013-02-17 18:27:00,50.7,29.0,30.11,SW,225,2.0,6.0,43,0.00,,---,0.00,VWS V14.01,2013-02-18 00:27:00,
2013-02-17 18:28:00,50.7,29.0,30.11,SW,226,2.0,6.0,43,0.00,,---,0.00,VWS V14.01,2013-02-18 00:28:00,
2013-02-17 18:30:00,50.5,28.9,30.11,SSW,213,1.0,6.0,43,0.00,,---,0.00,VWS V14.01,2013-02-18 00:30:00,
2013-02-17 18:31:00,50.5,29.4,30.11,SSW,213,1.0,1.0,44,0.00,,---,0.00,VWS V14.01,2013-02-18 00:31:00,
2013-02-17 18:32:00,50.4,28.8,30.11,SW,217,2.0,4.0,43,0.00,,---,0.00,VWS V14.01,2013-02-18 00:32:00,
2013-02-17 18:33:00,50.3,29.2,30.11,SW,214,3.0,4.0,44,0.00,,---,0.00,VWS V14.01,2013-02-18 00:33:00,
2013-02-17 18:35:00,50.3,28.7,30.11,SW,230,2.0,4.0,43,0.00,,---,0.00,VWS V14.01,2013-02-18 00:35:00,
2013-02-17 18:36:00,50.2,29.1,30.11,SSW,205,3.0,4.0,44,0.00,,---,0.00,VWS V14.01,2013-02-18 00:36:00,
2013-02-17 18:37:00,50.2,29.1,30.11,WSW,240,1.0,4.0,44,0.00,,---,0.00,VWS V14.01,2013-02-18 00:37:00,
2013-02-17 18:38:00,50.2,29.1,30.11,SSW,212,1.0,4.0,44,0.00,,---,0.00,VWS V14.01,2013-02-18 00:38:00,
2013-02-17 18:40:00,50.1,29.0,30.11,SW,221,2.0,4.0,44,0.00,,---,0.00,VWS V14.01,2013-02-18 00:40:00,
2013-02-17 18:41:00,50.0,29.0,30.11,SW,219,1.0,4.0,44,0.00,,---,0.00,VWS V14.01,2013-02-18 00:41:00,
2013-02-17 18:42:00,50.0,29.0,30.11,SW,218,1.0,4.0,44,0.00,,---,0.00,VWS V14.01,2013-02-18 00:42:00,
2013-02-17 18:43:00,49.9,28.9,30.11,SW,218,1.0,4.0,44,0.00,,---,0.00,VWS V14.01,2013-02-18 00:43:00,
2013-02-17 18:45:00,49.8,29.3,30.11,SW,226,2.0,4.0,45,0.00,,---,0.00,VWS V14.01,2013-02-18 00:45:00,
2013-02-17 18:46:00,49.7,29.2,30.11,SW,225,0.0,2.0,45,0.00,,---,0.00,VWS V14.01,2013-02-18 00:46:00,
2013-02-17 18:47:00,49.7,29.2,30.11,SW,228,0.0,2.0,45,0.00,,---,0.00,VWS V14.01,2013-02-18 00:47:00,
2013-02-17 18:48:00,49.7,29.2,30.11,SW,228,1.0,2.0,45,0.00,,---,0.00,VWS V14.01,2013-02-18 00:48:00,
2013-02-17 18:50:00,49.5,29.1,30.11,SW,228,1.0,2.0,45,0.00,,---,0.00,VWS V14.01,2013-02-18 00:50:00,
2013-02-17 18:52:00,49.4,29.0,30.11,SW,228,0.0,2.0,45,0.00,,---,0.00,VWS V14.01,2013-02-18 00:52:00,
2013-02-17 18:53:00,49.3,29.4,30.11,SW,236,1.0,2.0,46,0.00,,---,0.00,VWS V14.01,2013-02-18 00:53:00,
2013-02-17 18:55:00,49.2,29.3,30.11,WSW,237,1.0,2.0,46,0.00,,---,0.00,VWS V14.01,2013-02-18 00:55:00,
2013-02-17 18:57:00,49.1,29.2,30.11,SW,235,0.0,2.0,46,0.00,,---,0.00,VWS V14.01,2013-02-18 00:57:00,
2013-02-17 18:58:00,49.0,29.1,30.11,SW,232,0.0,2.0,46,0.00,,---,0.00,VWS V14.01,2013-02-18 00:58:00,
2013-02-17 19:00:00,48.9,29.6,30.10,SW,218,1.0,1.0,47,0.00,,---,0.00,VWS V14.01,2013-02-18 01:00:00,
2013-02-17 19:02:00,48.8,29.5,30.11,SW,218,1.0,2.0,47,0.00,,---,0.00,VWS V14.01,2013-02-18 01:02:00,
2013-02-17 19:03:00,48.7,29.4,30.10,SW,216,2.0,3.0,47,0.00,,---,0.00,VWS V14.01,2013-02-18 01:03:00,
2013-02-17 19:05:00,48.6,29.3,30.11,SW,223,1.0,3.0,47,0.00,,---,0.00,VWS V14.01,2013-02-18 01:05:00,
2013-02-17 19:07:00,48.5,29.2,30.11,SW,223,1.0,3.0,47,0.00,,---,0.00,VWS V14.01,2013-02-18 01:07:00,
2013-02-17 19:08:00,48.4,29.1,30.11,SW,226,1.0,3.0,47,0.00,,---,0.00,VWS V14.01,2013-02-18 01:08:00,
2013-02-17 19:11:00,48.3,29.0,30.11,SW,226,1.0,3.0,47,0.00,,---,0.00,VWS V14.01,2013-02-18 01:11:00,
2013-02-17 19:12:00,48.3,29.5,30.10,SW,221,1.0,3.0,48,0.00,,---,0.00,VWS V14.01,2013-02-18 01:12:00,
2013-02-17 19:13:00,48.3,29.5,30.10,SW,221,1.0,3.0,48,0.00,,---,0.00,VWS V14.01,2013-02-18 01:13:00,
2013-02-17 19:16:00,48.2,29.5,30.10,WSW,243,0.0,2.0,48,0.00,,---,0.00,VWS V14.01,2013-02-18 01:16:00,
2013-02-17 19:17:00,48.1,29.4,30.10,SW,231,1.0,3.0,48,0.00,,---,0.00,VWS V14.01,2013-02-18 01:17:00,
2013-02-17 19:18:00,48.2,29.5,30.10,SW,231,1.0,3.0,48,0.00,,---,0.00,VWS V14.01,2013-02-18 01:18:00,
2013-02-17 19:21:00,48.1,29.4,30.11,SW,216,1.0,3.0,48,0.00,,---,0.00,VWS V14.01,2013-02-18 01:21:00,
2013-02-17 19:22:00,48.1,29.4,30.11,SW,228,0.0,3.0,48,0.00,,---,0.00,VWS V14.01,2013-02-18 01:22:00,
2013-02-17 19:23:00,48.0,29.3,30.11,SW,228,1.0,3.0,48,0.00,,---,0.00,VWS V14.01,2013-02-18 01:23:00,
2013-02-17 19:24:00,48.0,29.3,30.11,SW,227,1.0,3.0,48,0.00,,---,0.00,VWS V14.01,2013-02-18 01:24:00,
2013-02-17 19:26:00,48.0,29.3,30.11,SSW,206,3.0,3.0,48,0.00,,---,0.00,VWS V14.01,2013-02-18 01:26:00,
2013-02-17 19:28:00,48.0,29.3,30.10,SW,216,0.0,3.0,48,0.00,,---,0.00,VWS V14.01,2013-02-18 01:28:00,
2013-02-17 19:29:00,48.0,29.3,30.10,SSW,209,4.0,4.0,48,0.00,,---,0.00,VWS V14.01,2013-02-18 01:29:00,
2013-02-17 19:31:00,48.0,29.3,30.10,SW,221,1.0,2.0,48,0.00,,---,0.00,VWS V14.01,2013-02-18 01:31:00,
2013-02-17 19:33:00,47.9,29.7,30.10,SW,218,1.0,2.0,49,0.00,,---,0.00,VWS V14.01,2013-02-18 01:33:00,
2013-02-17 19:34:00,47.9,29.7,30.10,SW,228,1.0,2.0,49,0.00,,---,0.00,VWS V14.01,2013-02-18 01:34:00,
2013-02-17 19:36:00,47.9,29.7,30.10,SW,228,1.0,2.0,49,0.00,,---,0.00,VWS V14.01,2013-02-18 01:36:00,
2013-02-17 19:38:00,47.8,29.6,30.10,SW,216,2.0,2.0,49,0.00,,---,0.00,VWS V14.01,2013-02-18 01:38:00,
2013-02-17 19:39:00,47.7,29.5,30.10,SW,216,1.0,3.0,49,0.00,,---,0.00,VWS V14.01,2013-02-18 01:39:00,
2013-02-17 19:41:00,47.7,29.5,30.10,SW,216,2.0,3.0,49,0.00,,---,0.00,VWS V14.01,2013-02-18 01:41:00,
2013-02-17 19:43:00,47.7,29.5,30.10,WSW,250,1.0,4.0,49,0.00,,---,0.00,VWS V14.01,2013-02-18 01:43:00,
2013-02-17 19:44:00,47.7,29.5,30.10,South,179,3.0,4.0,49,0.00,,---,0.00,VWS V14.01,2013-02-18 01:44:00,
2013-02-17 19:46:00,47.6,29.4,30.10,South,182,4.0,4.0,49,0.00,,---,0.00,VWS V14.01,2013-02-18 01:46:00,
2013-02-17 19:48:00,47.7,29.5,30.10,SSW,206,2.0,4.0,49,0.00,,---,0.00,VWS V14.01,2013-02-18 01:48:00,
2013-02-17 19:49:00,47.7,29.5,30.10,SSW,200,2.0,4.0,49,0.00,,---,0.00,VWS V14.01,2013-02-18 01:49:00,
2013-02-17 19:51:00,47.7,29.5,30.10,South,183,4.0,4.0,49,0.00,,---,0.00,VWS V14.01,2013-02-18 01:51:00,
2013-02-17 19:53:00,47.7,29.5,30.10,SSW,205,1.0,4.0,49,0.00,,---,0.00,VWS V14.01,2013-02-18 01:53:00,
2013-02-17 19:54:00,47.7,29.5,30.10,SW,214,3.0,4.0,49,0.00,,---,0.00,VWS V14.01,2013-02-18 01:54:00,
2013-02-17 19:57:00,47.7,29.5,30.10,SW,217,1.0,4.0,49,0.00,,---,0.00,VWS V14.01,2013-02-18 01:57:00,
2013-02-17 19:58:00,47.7,29.5,30.10,SW,231,1.0,4.0,49,0.00,,---,0.00,VWS V14.01,2013-02-18 01:58:00,
2013-02-17 19:59:00,47.6,29.9,30.10,SW,227,1.0,4.0,50,0.00,,---,0.00,VWS V14.01,2013-02-18 01:59:00,
2013-02-17 20:02:00,47.5,29.8,30.11,SW,225,1.0,3.0,50,0.00,,---,0.00,VWS V14.01,2013-02-18 02:02:00,
2013-02-17 20:03:00,47.5,29.8,30.11,SSW,207,3.0,3.0,50,0.00,,---,0.00,VWS V14.01,2013-02-18 02:03:00,
2013-02-17 20:04:00,47.5,29.8,30.11,SSW,212,1.0,3.0,50,0.00,,---,0.00,VWS V14.01,2013-02-18 02:04:00,
2013-02-17 20:07:00,47.5,29.8,30.11,SW,214,1.0,3.0,50,0.00,,---,0.00,VWS V14.01,2013-02-18 02:07:00,
2013-02-17 20:08:00,47.5,29.8,30.11,South,188,3.0,5.0,50,0.00,,---,0.00,VWS V14.01,2013-02-18 02:08:00,
2013-02-17 20:09:00,47.5,29.8,30.11,West,272,1.0,5.0,50,0.00,,---,0.00,VWS V14.01,2013-02-18 02:09:00,
2013-02-17 20:12:00,47.5,29.8,30.11,SW,230,1.0,5.0,50,0.00,,---,0.00,VWS V14.01,2013-02-18 02:12:00,
2013-02-17 20:13:00,47.5,29.8,30.11,SW,216,2.0,5.0,50,0.00,,---,0.00,VWS V14.01,2013-02-18 02:13:00,
2013-02-17 20:14:00,47.4,29.7,30.11,SW,216,1.0,5.0,50,0.00,,---,0.00,VWS V14.01,2013-02-18 02:14:00,
2013-02-17 20:17:00,47.4,30.2,30.11,WSW,245,2.0,4.0,51,0.00,,---,0.00,VWS V14.01,2013-02-18 02:17:00,
2013-02-17 20:18:00,47.3,29.6,30.11,SSW,211,2.0,4.0,50,0.00,,---,0.00,VWS V14.01,2013-02-18 02:18:00,
2013-02-17 20:20:00,47.3,29.6,30.11,South,185,2.0,4.0,50,0.00,,---,0.00,VWS V14.01,2013-02-18 02:20:00,
2013-02-17 20:22:00,47.3,30.1,30.11,South,179,2.0,5.0,51,0.00,,---,0.00,VWS V14.01,2013-02-18 02:22:00,
2013-02-17 20:23:00,47.2,30.0,30.11,SSW,206,2.0,5.0,51,0.00,,---,0.00,VWS V14.01,2013-02-18 02:23:00,
2013-02-17 20:25:00,47.2,30.0,30.11,SW,216,3.0,5.0,51,0.00,,---,0.00,VWS V14.01,2013-02-18 02:25:00,
2013-02-17 20:27:00,47.1,29.9,30.11,SSW,211,1.0,5.0,51,0.00,,---,0.00,VWS V14.01,2013-02-18 02:27:00,
2013-02-17 20:28:00,47.1,29.9,30.11,SW,217,1.0,5.0,51,0.00,,---,0.00,VWS V14.01,2013-02-18 02:28:00,
2013-02-17 20:29:00,47.1,29.9,30.11,SW,217,2.0,5.0,51,0.00,,---,0.00,VWS V14.01,2013-02-18 02:29:00,
2013-02-17 20:30:00,47.1,29.9,30.11,SW,218,2.0,5.0,51,0.00,,---,0.00,VWS V14.01,2013-02-18 02:30:00,
2013-02-17 20:32:00,47.0,29.8,30.11,SW,217,2.0,2.0,51,0.00,,---,0.00,VWS V14.01,2013-02-18 02:32:00,
2013-02-17 20:33:00,47.0,29.8,30.11,SSW,205,3.0,3.0,51,0.00,,---,0.00,VWS V14.01,2013-02-18 02:33:00,
2013-02-17 20:34:00,46.9,29.7,30.11,SSW,202,2.0,3.0,51,0.00,,---,0.00,VWS V14.01,2013-02-18 02:34:00,
2013-02-17 20:35:00,46.9,29.7,30.11,SSW,207,3.0,4.0,51,0.00,,---,0.00,VWS V14.01,2013-02-18 02:35:00,
2013-02-17 20:37:00,46.9,30.2,30.11,SW,218,1.0,4.0,52,0.00,,---,0.00,VWS V14.01,2013-02-18 02:37:00,
2013-02-17 20:39:00,46.9,29.7,30.11,SW,214,1.0,4.0,51,0.00,,---,0.00,VWS V14.01,2013-02-18 02:39:00,
2013-02-17 20:40:00,46.8,30.1,30.11,SSW,211,3.0,4.0,52,0.00,,---,0.00,VWS V14.01,2013-02-18 02:40:00,
2013-02-17 20:42:00,46.7,30.0,30.11,SSW,207,3.0,4.0,52,0.00,,---,0.00,VWS V14.01,2013-02-18 02:42:00,
2013-02-17 20:44:00,46.7,30.0,30.11,SW,214,3.0,4.0,52,0.00,,---,0.00,VWS V14.01,2013-02-18 02:44:00,
2013-02-17 20:45:00,46.7,30.0,30.11,SW,228,1.0,1.0,52,0.00,,---,0.00,VWS V14.01,2013-02-18 02:45:00,
2013-02-17 20:47:00,46.6,29.9,30.11,SW,221,2.0,3.0,52,0.00,,---,0.00,VWS V14.01,2013-02-18 02:47:00,
2013-02-17 20:49:00,46.6,29.9,30.11,SSW,211,4.0,4.0,52,0.00,,---,0.00,VWS V14.01,2013-02-18 02:49:00,
2013-02-17 20:50:00,46.5,29.8,30.11,SSW,212,2.0,5.0,52,0.00,,---,0.00,VWS V14.01,2013-02-18 02:50:00,
2013-02-17 20:52:00,46.5,29.8,30.11,SW,214,1.0,6.0,52,0.00,,---,0.00,VWS V14.01,2013-02-18 02:52:00,
2013-02-17 20:54:00,46.5,29.8,30.11,WSW,250,2.0,6.0,52,0.00,,---,0.00,VWS V14.01,2013-02-18 02:54:00,
2013-02-17 20:55:00,46.5,29.8,30.11,SW,217,3.0,6.0,52,0.00,,---,0.00,VWS V14.01,2013-02-18 02:55:00,
2013-02-17 20:57:00,46.5,29.8,30.11,SSW,207,2.0,6.0,52,0.00,,---,0.00,VWS V14.01,2013-02-18 02:57:00,
2013-02-17 20:59:00,46.5,29.8,30.11,SW,216,3.0,6.0,52,0.00,,---,0.00,VWS V14.01,2013-02-18 02:59:00,
2013-02-17 21:00:00,46.5,29.8,30.11,SSW,210,5.0,5.0,52,0.00,,---,0.00,VWS V14.01,2013-02-18 03:00:00,
2013-02-17 21:03:00,46.5,30.3,30.11,SW,223,1.0,5.0,53,0.00,,---,0.00,VWS V14.01,2013-02-18 03:03:00,
2013-02-17 21:04:00,46.5,30.3,30.11,SSW,202,4.0,5.0,53,0.00,,---,0.00,VWS V14.01,2013-02-18 03:04:00,
2013-02-17 21:06:00,46.4,30.2,30.11,SW,219,1.0,5.0,53,0.00,,---,0.00,VWS V14.01,2013-02-18 03:06:00,
2013-02-17 21:08:00,46.4,30.2,30.11,SSW,205,3.0,5.0,53,0.00,,---,0.00,VWS V14.01,2013-02-18 03:08:00,
2013-02-17 21:09:00,46.4,30.2,30.11,South,180,3.0,5.0,53,0.00,,---,0.00,VWS V14.01,2013-02-18 03:09:00,
2013-02-17 21:11:00,46.3,30.1,30.11,SSW,206,2.0,5.0,53,0.00,,---,0.00,VWS V14.01,2013-02-18 03:11:00,
2013-02-17 21:13:00,46.3,30.1,30.11,SSW,202,3.0,5.0,53,0.00,,---,0.00,VWS V14.01,2013-02-18 03:13:00,
2013-02-17 21:14:00,46.3,30.1,30.11,South,177,3.0,5.0,53,0.00,,---,0.00,VWS V14.01,2013-02-18 03:14:00,
2013-02-17 21:16:00,46.3,30.1,30.11,SW,225,1.0,2.0,53,0.00,,---,0.00,VWS V14.01,2013-02-18 03:16:00,
2013-02-17 21:18:00,46.2,30.0,30.11,SW,225,2.0,5.0,53,0.00,,---,0.00,VWS V14.01,2013-02-18 03:18:00,
2013-02-17 21:19:00,46.2,30.5,30.11,SSW,207,6.0,6.0,54,0.00,,---,0.00,VWS V14.01,2013-02-18 03:19:00,
2013-02-17 21:21:00,46.2,30.5,30.11,South,188,3.0,6.0,54,0.00,,---,0.00,VWS V14.01,2013-02-18 03:21:00,
2013-02-17 21:23:00,46.1,30.4,30.11,SSW,208,2.0,6.0,54,0.00,,---,0.00,VWS V14.01,2013-02-18 03:23:00,
2013-02-17 21:24:00,46.1,30.4,30.11,SW,223,1.0,6.0,54,0.00,,---,0.00,VWS V14.01,2013-02-18 03:24:00,
2013-02-17 21:26:00,46.0,30.3,30.11,SSW,195,3.0,6.0,54,0.00,,---,0.00,VWS V14.01,2013-02-18 03:26:00,
2013-02-17 21:28:00,46.0,30.3,30.10,South,176,3.0,6.0,54,0.00,,---,0.00,VWS V14.01,2013-02-18 03:28:00,
2013-02-17 21:29:00,46.0,30.3,30.11,SSW,212,3.0,6.0,54,0.00,,---,0.00,VWS V14.01,2013-02-18 03:29:00,
2013-02-17 21:31:00,46.0,30.3,30.10,SSW,195,3.0,4.0,54,0.00,,---,0.00,VWS V14.01,2013-02-18 03:31:00,
2013-02-17 21:33:00,46.0,30.3,30.10,SSW,210,1.0,4.0,54,0.00,,---,0.00,VWS V14.01,2013-02-18 03:33:00,
2013-02-17 21:34:00,46.0,30.3,30.10,SW,216,1.0,7.0,54,0.00,,---,0.00,VWS V14.01,2013-02-18 03:34:00,
2013-02-17 21:35:00,46.0,30.3,30.10,SW,216,1.0,7.0,54,0.00,,---,0.00,VWS V14.01,2013-02-18 03:35:00,
2013-02-17 21:36:00,45.9,30.2,30.10,SW,223,2.0,7.0,54,0.00,,---,0.00,VWS V14.01,2013-02-18 03:36:00,
2013-02-17 21:38:00,45.9,30.2,30.10,SSW,212,2.0,7.0,54,0.00,,---,0.00,VWS V14.01,2013-02-18 03:38:00,
2013-02-17 21:40:00,45.9,30.2,30.10,SSW,205,3.0,7.0,54,0.00,,---,0.00,VWS V14.01,2013-02-18 03:40:00,
2013-02-17 21:41:00,45.9,30.2,30.10,SW,221,3.0,7.0,54,0.00,,---,0.00,VWS V14.01,2013-02-18 03:41:00,
2013-02-17 21:43:00,45.9,30.7,30.10,SSW,202,4.0,7.0,55,0.00,,---,0.00,VWS V14.01,2013-02-18 03:43:00,
2013-02-17 21:45:00,45.9,30.7,30.11,SW,219,3.0,7.0,55,0.00,,---,0.00,VWS V14.01,2013-02-18 03:45:00,
2013-02-17 21:46:00,45.8,30.6,30.10,South,183,2.0,3.0,55,0.00,,---,0.00,VWS V14.01,2013-02-18 03:46:00,
2013-02-17 21:48:00,45.8,30.6,30.10,SSW,198,3.0,4.0,55,0.00,,---,0.00,VWS V14.01,2013-02-18 03:48:00,
2013-02-17 21:50:00,45.8,30.6,30.10,SW,231,2.0,4.0,55,0.00,,---,0.00,VWS V14.01,2013-02-18 03:50:00,
2013-02-17 21:51:00,45.8,30.6,30.10,SSW,202,3.0,4.0,55,0.00,,---,0.00,VWS V14.01,2013-02-18 03:51:00,
2013-02-17 21:53:00,45.8,30.6,30.10,SSW,199,4.0,4.0,55,0.00,,---,0.00,VWS V14.01,2013-02-18 03:53:00,
2013-02-17 21:55:00,45.7,30.5,30.10,SW,216,3.0,4.0,55,0.00,,---,0.00,VWS V14.01,2013-02-18 03:55:00,
2013-02-17 21:56:00,45.7,30.5,30.10,WNW,289,5.0,5.0,55,0.00,,---,0.00,VWS V14.01,2013-02-18 03:56:00,
2013-02-17 21:58:00,45.7,30.5,30.10,SSW,209,0.0,6.0,55,0.00,,---,0.00,VWS V14.01,2013-02-18 03:58:00,
2013-02-17 22:00:00,45.7,30.9,30.10,South,183,4.0,4.0,56,0.00,,---,0.00,VWS V14.01,2013-02-18 04:00:00,
2013-02-17 22:01:00,45.7,30.5,30.10,WSW,237,5.0,5.0,55,0.00,,---,0.00,VWS V14.01,2013-02-18 04:01:00,
2013-02-17 22:03:00,45.7,30.5,30.10,SSW,195,4.0,6.0,55,0.00,,---,0.00,VWS V14.01,2013-02-18 04:03:00,
2013-02-17 22:05:00,45.8,30.6,30.10,SSW,202,2.0,6.0,55,0.00,,---,0.00,VWS V14.01,2013-02-18 04:05:00,
2013-02-17 22:06:00,45.8,30.6,30.10,SSW,207,3.0,6.0,55,0.00,,---,0.00,VWS V14.01,2013-02-18 04:06:00,
2013-02-17 22:08:00,45.9,30.7,30.10,WSW,240,1.0,6.0,55,0.00,,---,0.00,VWS V14.01,2013-02-18 04:08:00,
2013-02-17 22:10:00,45.9,30.7,30.10,SW,218,4.0,6.0,55,0.00,,---,0.00,VWS V14.01,2013-02-18 04:10:00,
2013-02-17 22:11:00,45.9,30.7,30.10,South,188,3.0,6.0,55,0.00,,---,0.00,VWS V14.01,2013-02-18 04:11:00,
2013-02-17 22:13:00,46.0,30.8,30.10,SSW,213,3.0,8.0,55,0.00,,---,0.00,VWS V14.01,2013-02-18 04:13:00,
2013-02-17 22:15:00,46.1,30.9,30.10,South,177,3.0,7.0,55,0.00,,---,0.00,VWS V14.01,2013-02-18 04:15:00,
2013-02-17 22:16:00,46.1,30.9,30.10,SSW,209,7.0,7.0,55,0.00,,---,0.00,VWS V14.01,2013-02-18 04:16:00,
2013-02-17 22:18:00,46.1,30.9,30.09,SW,221,1.0,7.0,55,0.00,,---,0.00,VWS V14.01,2013-02-18 04:18:00,
2013-02-17 22:20:00,46.1,30.9,30.10,South,186,5.0,8.0,55,0.00,,---,0.00,VWS V14.01,2013-02-18 04:20:00,
2013-02-17 22:21:00,46.2,30.9,30.09,SSW,197,3.0,8.0,55,0.00,,---,0.00,VWS V14.01,2013-02-18 04:21:00,
2013-02-17 22:24:00,46.2,30.9,30.10,SW,235,5.0,8.0,55,0.00,,---,0.00,VWS V14.01,2013-02-18 04:24:00,
2013-02-17 22:25:00,46.3,31.0,30.09,SSE,149,3.0,13.0,55,0.00,,---,0.00,VWS V14.01,2013-02-18 04:25:00,
2013-02-17 22:26:00,46.3,31.0,30.10,SW,214,7.0,13.0,55,0.00,,---,0.00,VWS V14.01,2013-02-18 04:26:00,
2013-02-17 22:29:00,46.3,31.0,30.09,SSW,193,2.0,13.0,55,0.00,,---,0.00,VWS V14.01,2013-02-18 04:29:00,
2013-02-17 22:31:00,46.3,31.0,30.09,South,171,1.0,6.0,55,0.00,,---,0.00,VWS V14.01,2013-02-18 04:31:00,
2013-02-17 22:34:00,46.3,31.0,30.09,WSW,245,2.0,7.0,55,0.00,,---,0.00,VWS V14.01,2013-02-18 04:34:00,
2013-02-17 22:36:00,46.3,31.0,30.09,South,175,3.0,8.0,55,0.00,,---,0.00,VWS V14.01,2013-02-18 04:36:00,
2013-02-17 22:39:00,46.4,31.1,30.10,SW,233,3.0,8.0,55,0.00,,---,0.00,VWS V14.01,2013-02-18 04:39:00,
2013-02-17 22:41:00,46.3,31.0,30.09,SW,218,3.0,8.0,55,0.00,,---,0.00,VWS V14.01,2013-02-18 04:41:00,
2013-02-17 22:42:00,46.3,31.0,30.09,WSW,239,3.0,8.0,55,0.00,,---,0.00,VWS V14.01,2013-02-18 04:42:00,
2013-02-17 22:44:00,46.3,31.0,30.09,South,180,4.0,8.0,55,0.00,,---,0.00,VWS V14.01,2013-02-18 04:44:00,
2013-02-17 22:46:00,46.3,31.0,30.09,SW,233,3.0,6.0,55,0.00,,---,0.00,VWS V14.01,2013-02-18 04:46:00,
2013-02-17 22:47:00,46.3,31.0,30.09,SW,223,7.0,7.0,55,0.00,,---,0.00,VWS V14.01,2013-02-18 04:47:00,
2013-02-17 22:49:00,46.4,31.1,30.09,SSW,207,6.0,9.0,55,0.00,,---,0.00,VWS V14.01,2013-02-18 04:49:00,
2013-02-17 22:51:00,46.5,31.2,30.09,SSE,158,4.0,9.0,55,0.00,,---,0.00,VWS V14.01,2013-02-18 04:51:00,
2013-02-17 22:52:00,46.5,31.2,30.09,SW,228,4.0,9.0,55,0.00,,---,0.00,VWS V14.01,2013-02-18 04:52:00,
2013-02-17 22:54:00,46.5,31.2,30.09,SSW,200,3.0,9.0,55,0.00,,---,0.00,VWS V14.01,2013-02-18 04:54:00,
2013-02-17 22:56:00,46.5,31.2,30.09,South,182,4.0,9.0,55,0.00,,---,0.00,VWS V14.01,2013-02-18 04:56:00,
2013-02-17 22:57:00,46.5,31.2,30.09,South,169,6.0,9.0,55,0.00,,---,0.00,VWS V14.01,2013-02-18 04:57:00,
2013-02-17 22:59:00,46.5,31.2,30.09,SW,214,6.0,9.0,55,0.00,,---,0.00,VWS V14.01,2013-02-18 04:59:00,
2013-02-17 23:00:00,46.5,31.2,30.09,South,191,6.0,9.0,55,0.00,,---,0.00,VWS V14.01,2013-02-18 05:00:00,
2013-02-17 23:05:00,46.8,31.5,30.08,South,180,6.0,11.0,55,0.00,,---,0.00,VWS V14.01,2013-02-18 05:05:00,
2013-02-17 23:10:00,47.0,31.7,30.08,SSW,195,4.0,11.0,55,0.00,,---,0.00,VWS V14.01,2013-02-18 05:10:00,
2013-02-17 23:15:00,47.1,31.8,30.08,SW,216,4.0,11.0,55,0.00,,---,0.00,VWS V14.01,2013-02-18 05:15:00,
2013-02-17 23:20:00,47.1,31.8,30.08,SSW,195,3.0,9.0,55,0.00,,---,0.00,VWS V14.01,2013-02-18 05:20:00,
2013-02-17 23:25:00,47.0,31.7,30.08,SSW,210,4.0,9.0,55,0.00,,---,0.00,VWS V14.01,2013-02-18 05:25:00,
2013-02-17 23:30:00,47.0,31.7,30.08,SSW,205,5.0,9.0,55,0.00,,---,0.00,VWS V14.01,2013-02-18 05:30:00,
2013-02-17 23:31:00,46.9,31.6,30.08,SSE,168,4.0,10.0,55,0.00,,---,0.00,VWS V14.01,2013-02-18 05:31:00,
2013-02-17 23:35:00,46.9,31.6,30.08,South,189,4.0,10.0,55,0.00,,---,0.00,VWS V14.01,2013-02-18 05:35:00,
2013-02-17 23:36:00,46.9,31.6,30.08,SW,216,3.0,10.0,55,0.00,,---,0.00,VWS V14.01,2013-02-18 05:36:00,
2013-02-17 23:40:00,46.8,32.0,30.08,South,181,6.0,10.0,56,0.00,,---,0.00,VWS V14.01,2013-02-18 05:40:00,
2013-02-17 23:41:00,46.8,32.0,30.08,SW,219,3.0,10.0,56,0.00,,---,0.00,VWS V14.01,2013-02-18 05:41:00,
2013-02-17 23:45:00,46.9,32.0,30.08,West,261,4.0,10.0,56,0.00,,---,0.00,VWS V14.01,2013-02-18 05:45:00,
2013-02-17 23:46:00,46.9,32.0,30.08,SSE,166,3.0,8.0,56,0.00,,---,0.00,VWS V14.01,2013-02-18 05:46:00,
2013-02-17 23:47:00,46.9,32.0,30.08,SSW,200,7.0,8.0,56,0.00,,---,0.00,VWS V14.01,2013-02-18 05:47:00,
2013-02-17 23:50:00,47.0,32.1,30.08,South,179,3.0,9.0,56,0.00,,---,0.00,VWS V14.01,2013-02-18 05:50:00,
2013-02-17 23:51:00,47.0,32.1,30.08,SSW,200,6.0,9.0,56,0.00,,---,0.00,VWS V14.01,2013-02-18 05:51:00,
2013-02-17 23:52:00,47.0,32.1,30.08,SW,224,3.0,9.0,56,0.00,,---,0.00,VWS V14.01,2013-02-18 05:52:00,
2013-02-17 23:55:00,47.1,32.2,30.08,South,186,4.0,9.0,56,0.00,,---,0.00,VWS V14.01,2013-02-18 05:55:00,
2013-02-17 23:56:00,47.1,32.2,30.08,SSW,202,4.0,9.0,56,0.00,,---,0.00,VWS V14.01,2013-02-18 05:56:00,
2013-02-17 23:57:00,47.1,32.2,30.08,South,188,1.0,9.0,56,0.00,,---,0.00,VWS V14.01,2013-02-18 05:57:00,